| State | Nebraska | Latest | Unknown (4520 cfs) | |
| River | Platte River | Rating | Observed | Estimated |
| Updated | 2026-05-05 12:15 (37 minutes ago) | Flood - The river is flooding. Obstacles can be treacherous or deadly. The river should be avoided at this stage for casual trips and definitely for the inexperienced. Trips should be attempted only with protective gear and equipment.Flood | (none) | (none) |
| Discharge | 4520 cfs (median: 7540 cfs) | High - The river is high and potentially dangerous, especially for the young and / or inexperienced. Normal stream obstacles are sometimes difficult to navigate. Extended distances can be attempted, but canoe travel may not be advisable.High | (none) | (none) |
| Height | 3.14 feet | Good - Conditions are ideal for a canoe or kayak. Boats typically will drag on fewer than one-quarter of riffles, if at all, and portages are unnecessary or rare. Normal float lengths can be attempted without a problem.Good | (none) | (none) |
| Trend | Steady (falling over 24 hours) | Low - River is low but can still be floated. Some riffles are okay but most come with significant dragging and might need a portage. Float lengths should be reduced to accommodate low flow, dragging, and portages.Low | (none) | (none) |
| USGS | USGS Site ( Duck Duck Go Maps) | Poor - River is too low to float comfortably. Most or all riffles will drag or must be portaged and some obstacles (such as slick shelf rock) cause undue problems. Avoid the river at this stage for casual paddling trips.Poor | (none) | (none) |
| Date | Start | End | Distance | Condition | Discharge | Height | Fishing | Details |
|---|
A total of 0 rows are displayed.
BLG - Bluegill
CCF - Channel Catfish
CP - Chain Pickerel
FWD - Freshwater Drum
GSF - Green Sunfish
KSB - Kentucky Spotted Bass
LMB - Largemouth Bass
LSF - Longear Sunfish
RB - Rock Bass / Goggle Eye
RSF - Redear Sunfish
RT - Rainbow Trout
SMB - Smallmouth Bass
WB - White Bass
WF - Whitefish
WL - WalleyeThe classic River Trips application is still available for use. It is updated with the new system using a data retrofit. It is no longer maintained. The original River Trips application is no longer updated (as of 1 Dec 2016) but can be checked for errors or for the condition of the data before it was converted to the new system.
| Observation | Height | Discharge | Maximum Discharge | Minimum Discharge | Mean Discharge | P05 | P10 | P20 | P25 | P50 (Median) | P75 | P80 | P90 | P95 |
|---|---|---|---|---|---|---|---|---|---|---|---|---|---|---|
| 2026-05-05 12:15 | 3.14 | 4520 | 42800 (1984) | 2430 (1955) | 9810 | 3470 | 3960 | 5100 | 5600 | 7540 | 11200 | 12600 | 19200 | 26400 |
| 2026-05-05 11:15 | 3.14 | 4520 | 42800 (1984) | 2430 (1955) | 9810 | 3470 | 3960 | 5100 | 5600 | 7540 | 11200 | 12600 | 19200 | 26400 |
| 2026-05-05 10:15 | 3.17 | 4630 | 42800 (1984) | 2430 (1955) | 9810 | 3470 | 3960 | 5100 | 5600 | 7540 | 11200 | 12600 | 19200 | 26400 |
| 2026-05-05 09:15 | 3.15 | 4550 | 42800 (1984) | 2430 (1955) | 9810 | 3470 | 3960 | 5100 | 5600 | 7540 | 11200 | 12600 | 19200 | 26400 |
| 2026-05-05 08:15 | 3.16 | 4590 | 42800 (1984) | 2430 (1955) | 9810 | 3470 | 3960 | 5100 | 5600 | 7540 | 11200 | 12600 | 19200 | 26400 |
| 2026-05-05 07:15 | 3.18 | 4670 | 42800 (1984) | 2430 (1955) | 9810 | 3470 | 3960 | 5100 | 5600 | 7540 | 11200 | 12600 | 19200 | 26400 |
| 2026-05-05 06:15 | 3.17 | 4630 | 42800 (1984) | 2430 (1955) | 9810 | 3470 | 3960 | 5100 | 5600 | 7540 | 11200 | 12600 | 19200 | 26400 |
| 2026-05-05 05:15 | 3.17 | 4630 | 42800 (1984) | 2430 (1955) | 9810 | 3470 | 3960 | 5100 | 5600 | 7540 | 11200 | 12600 | 19200 | 26400 |
| 2026-05-05 04:15 | 3.18 | 4670 | 42800 (1984) | 2430 (1955) | 9810 | 3470 | 3960 | 5100 | 5600 | 7540 | 11200 | 12600 | 19200 | 26400 |
| 2026-05-05 03:15 | 3.18 | 4670 | 42800 (1984) | 2430 (1955) | 9810 | 3470 | 3960 | 5100 | 5600 | 7540 | 11200 | 12600 | 19200 | 26400 |
| 2026-05-05 02:15 | 3.19 | 4710 | 42800 (1984) | 2430 (1955) | 9810 | 3470 | 3960 | 5100 | 5600 | 7540 | 11200 | 12600 | 19200 | 26400 |
| 2026-05-05 01:15 | 3.20 | 4750 | 42800 (1984) | 2430 (1955) | 9810 | 3470 | 3960 | 5100 | 5600 | 7540 | 11200 | 12600 | 19200 | 26400 |
| 2026-05-05 00:15 | 3.19 | 4710 | 42800 (1984) | 2430 (1955) | 9810 | 3470 | 3960 | 5100 | 5600 | 7540 | 11200 | 12600 | 19200 | 26400 |
| 2026-05-04 23:15 | 3.17 | 4630 | 42800 (1984) | 2430 (1955) | 9810 | 3470 | 3960 | 5100 | 5600 | 7540 | 11200 | 12600 | 19200 | 26400 |
| 2026-05-04 22:15 | 3.18 | 4670 | 44800 (1984) | 2820 (1955) | 9470 | 3470 | 4120 | 5000 | 5710 | 7740 | 10800 | 12400 | 15500 | 22100 |
| 2026-05-04 21:15 | 3.17 | 4630 | 44800 (1984) | 2820 (1955) | 9470 | 3470 | 4120 | 5000 | 5710 | 7740 | 10800 | 12400 | 15500 | 22100 |
| 2026-05-04 20:15 | 3.19 | 4710 | 44800 (1984) | 2820 (1955) | 9470 | 3470 | 4120 | 5000 | 5710 | 7740 | 10800 | 12400 | 15500 | 22100 |
| 2026-05-04 19:15 | 3.19 | 4710 | 44800 (1984) | 2820 (1955) | 9470 | 3470 | 4120 | 5000 | 5710 | 7740 | 10800 | 12400 | 15500 | 22100 |
| 2026-05-04 18:15 | 3.19 | 4710 | 44800 (1984) | 2820 (1955) | 9470 | 3470 | 4120 | 5000 | 5710 | 7740 | 10800 | 12400 | 15500 | 22100 |
| 2026-05-04 17:15 | 3.20 | 4750 | 44800 (1984) | 2820 (1955) | 9470 | 3470 | 4120 | 5000 | 5710 | 7740 | 10800 | 12400 | 15500 | 22100 |
| 2026-05-04 16:15 | 3.21 | 4790 | 44800 (1984) | 2820 (1955) | 9470 | 3470 | 4120 | 5000 | 5710 | 7740 | 10800 | 12400 | 15500 | 22100 |
| 2026-05-04 15:15 | 3.22 | 4830 | 44800 (1984) | 2820 (1955) | 9470 | 3470 | 4120 | 5000 | 5710 | 7740 | 10800 | 12400 | 15500 | 22100 |
| 2026-05-04 14:15 | 3.19 | 4710 | 44800 (1984) | 2820 (1955) | 9470 | 3470 | 4120 | 5000 | 5710 | 7740 | 10800 | 12400 | 15500 | 22100 |
| 2026-05-04 13:15 | 3.20 | 4750 | 44800 (1984) | 2820 (1955) | 9470 | 3470 | 4120 | 5000 | 5710 | 7740 | 10800 | 12400 | 15500 | 22100 |
| 2026-05-04 12:15 | 3.22 | 4830 | 44800 (1984) | 2820 (1955) | 9470 | 3470 | 4120 | 5000 | 5710 | 7740 | 10800 | 12400 | 15500 | 22100 |
| 2026-05-04 11:15 | 3.19 | 4710 | 44800 (1984) | 2820 (1955) | 9470 | 3470 | 4120 | 5000 | 5710 | 7740 | 10800 | 12400 | 15500 | 22100 |
| 2026-05-04 10:15 | 3.19 | 4710 | 44800 (1984) | 2820 (1955) | 9470 | 3470 | 4120 | 5000 | 5710 | 7740 | 10800 | 12400 | 15500 | 22100 |
| 2026-05-04 09:15 | 3.20 | 4750 | 44800 (1984) | 2820 (1955) | 9470 | 3470 | 4120 | 5000 | 5710 | 7740 | 10800 | 12400 | 15500 | 22100 |
| 2026-05-04 08:15 | 3.19 | 4710 | 44800 (1984) | 2820 (1955) | 9470 | 3470 | 4120 | 5000 | 5710 | 7740 | 10800 | 12400 | 15500 | 22100 |
| 2026-05-04 07:15 | 3.18 | 4670 | 44800 (1984) | 2820 (1955) | 9470 | 3470 | 4120 | 5000 | 5710 | 7740 | 10800 | 12400 | 15500 | 22100 |
| 2026-05-04 06:15 | 3.17 | 4630 | 44800 (1984) | 2820 (1955) | 9470 | 3470 | 4120 | 5000 | 5710 | 7740 | 10800 | 12400 | 15500 | 22100 |
| 2026-05-04 05:15 | 3.15 | 4550 | 44800 (1984) | 2820 (1955) | 9470 | 3470 | 4120 | 5000 | 5710 | 7740 | 10800 | 12400 | 15500 | 22100 |
| 2026-05-04 04:15 | 3.14 | 4520 | 44800 (1984) | 2820 (1955) | 9470 | 3470 | 4120 | 5000 | 5710 | 7740 | 10800 | 12400 | 15500 | 22100 |
| 2026-05-04 03:15 | 3.13 | 4480 | 44800 (1984) | 2820 (1955) | 9470 | 3470 | 4120 | 5000 | 5710 | 7740 | 10800 | 12400 | 15500 | 22100 |
| 2026-05-04 02:15 | 3.10 | 4370 | 44800 (1984) | 2820 (1955) | 9470 | 3470 | 4120 | 5000 | 5710 | 7740 | 10800 | 12400 | 15500 | 22100 |
| 2026-05-04 01:15 | 3.12 | 4440 | 44800 (1984) | 2820 (1955) | 9470 | 3470 | 4120 | 5000 | 5710 | 7740 | 10800 | 12400 | 15500 | 22100 |
| 2026-05-04 00:15 | 3.10 | 4370 | 44800 (1984) | 2820 (1955) | 9470 | 3470 | 4120 | 5000 | 5710 | 7740 | 10800 | 12400 | 15500 | 22100 |
| 2026-05-03 23:15 | 3.10 | 4370 | 44800 (1984) | 2820 (1955) | 9470 | 3470 | 4120 | 5000 | 5710 | 7740 | 10800 | 12400 | 15500 | 22100 |
| 2026-05-03 22:15 | 3.08 | 4290 | 42900 (1984) | 2580 (1981) | 9560 | 3190 | 3830 | 5150 | 5420 | 7740 | 11600 | 11900 | 15500 | 23900 |
| 2026-05-03 21:15 | 3.09 | 4330 | 42900 (1984) | 2580 (1981) | 9560 | 3190 | 3830 | 5150 | 5420 | 7740 | 11600 | 11900 | 15500 | 23900 |
| 2026-05-03 20:15 | 3.08 | 4290 | 42900 (1984) | 2580 (1981) | 9560 | 3190 | 3830 | 5150 | 5420 | 7740 | 11600 | 11900 | 15500 | 23900 |
| 2026-05-03 19:15 | 3.07 | 4260 | 42900 (1984) | 2580 (1981) | 9560 | 3190 | 3830 | 5150 | 5420 | 7740 | 11600 | 11900 | 15500 | 23900 |
| 2026-05-03 18:15 | 3.07 | 4260 | 42900 (1984) | 2580 (1981) | 9560 | 3190 | 3830 | 5150 | 5420 | 7740 | 11600 | 11900 | 15500 | 23900 |
| 2026-05-03 17:15 | 3.07 | 4260 | 42900 (1984) | 2580 (1981) | 9560 | 3190 | 3830 | 5150 | 5420 | 7740 | 11600 | 11900 | 15500 | 23900 |
| 2026-05-03 16:15 | 3.07 | 4260 | 42900 (1984) | 2580 (1981) | 9560 | 3190 | 3830 | 5150 | 5420 | 7740 | 11600 | 11900 | 15500 | 23900 |
| 2026-05-03 15:15 | 3.07 | 4260 | 42900 (1984) | 2580 (1981) | 9560 | 3190 | 3830 | 5150 | 5420 | 7740 | 11600 | 11900 | 15500 | 23900 |
| 2026-05-03 14:15 | 3.09 | 4330 | 42900 (1984) | 2580 (1981) | 9560 | 3190 | 3830 | 5150 | 5420 | 7740 | 11600 | 11900 | 15500 | 23900 |
| 2026-05-03 13:15 | 3.07 | 4260 | 42900 (1984) | 2580 (1981) | 9560 | 3190 | 3830 | 5150 | 5420 | 7740 | 11600 | 11900 | 15500 | 23900 |
| 2026-05-03 12:15 | 3.08 | 4290 | 42900 (1984) | 2580 (1981) | 9560 | 3190 | 3830 | 5150 | 5420 | 7740 | 11600 | 11900 | 15500 | 23900 |
| 2026-05-03 11:15 | 3.09 | 4330 | 42900 (1984) | 2580 (1981) | 9560 | 3190 | 3830 | 5150 | 5420 | 7740 | 11600 | 11900 | 15500 | 23900 |
| 2026-05-03 10:15 | 3.08 | 4290 | 42900 (1984) | 2580 (1981) | 9560 | 3190 | 3830 | 5150 | 5420 | 7740 | 11600 | 11900 | 15500 | 23900 |
| 2026-05-03 09:15 | 3.10 | 4370 | 42900 (1984) | 2580 (1981) | 9560 | 3190 | 3830 | 5150 | 5420 | 7740 | 11600 | 11900 | 15500 | 23900 |
| 2026-05-03 08:15 | 3.12 | 4440 | 42900 (1984) | 2580 (1981) | 9560 | 3190 | 3830 | 5150 | 5420 | 7740 | 11600 | 11900 | 15500 | 23900 |
| 2026-05-03 07:15 | 3.14 | 4520 | 42900 (1984) | 2580 (1981) | 9560 | 3190 | 3830 | 5150 | 5420 | 7740 | 11600 | 11900 | 15500 | 23900 |
| 2026-05-03 06:15 | 3.15 | 4550 | 42900 (1984) | 2580 (1981) | 9560 | 3190 | 3830 | 5150 | 5420 | 7740 | 11600 | 11900 | 15500 | 23900 |
| 2026-05-03 05:15 | 3.15 | 4550 | 42900 (1984) | 2580 (1981) | 9560 | 3190 | 3830 | 5150 | 5420 | 7740 | 11600 | 11900 | 15500 | 23900 |
| 2026-05-03 04:15 | 3.19 | 4710 | 42900 (1984) | 2580 (1981) | 9560 | 3190 | 3830 | 5150 | 5420 | 7740 | 11600 | 11900 | 15500 | 23900 |
| 2026-05-03 03:15 | 3.21 | 4790 | 42900 (1984) | 2580 (1981) | 9560 | 3190 | 3830 | 5150 | 5420 | 7740 | 11600 | 11900 | 15500 | 23900 |
| 2026-05-03 02:15 | 3.26 | 4990 | 42900 (1984) | 2580 (1981) | 9560 | 3190 | 3830 | 5150 | 5420 | 7740 | 11600 | 11900 | 15500 | 23900 |
| 2026-05-03 01:15 | 3.29 | 5110 | 42900 (1984) | 2580 (1981) | 9560 | 3190 | 3830 | 5150 | 5420 | 7740 | 11600 | 11900 | 15500 | 23900 |
| 2026-05-03 00:15 | 3.33 | 5280 | 42900 (1984) | 2580 (1981) | 9560 | 3190 | 3830 | 5150 | 5420 | 7740 | 11600 | 11900 | 15500 | 23900 |
| 2026-05-02 23:15 | 3.38 | 5490 | 42900 (1984) | 2580 (1981) | 9560 | 3190 | 3830 | 5150 | 5420 | 7740 | 11600 | 11900 | 15500 | 23900 |
| 2026-05-02 22:15 | 3.41 | 5620 | 40100 (1984) | 2810 (1981) | 9650 | 3310 | 3940 | 5120 | 5950 | 7910 | 10900 | 11900 | 17000 | 23400 |
| 2026-05-02 21:15 | 3.45 | 5800 | 40100 (1984) | 2810 (1981) | 9650 | 3310 | 3940 | 5120 | 5950 | 7910 | 10900 | 11900 | 17000 | 23400 |
| 2026-05-02 20:15 | 3.51 | 6070 | 40100 (1984) | 2810 (1981) | 9650 | 3310 | 3940 | 5120 | 5950 | 7910 | 10900 | 11900 | 17000 | 23400 |
| 2026-05-02 19:15 | 3.52 | 6120 | 40100 (1984) | 2810 (1981) | 9650 | 3310 | 3940 | 5120 | 5950 | 7910 | 10900 | 11900 | 17000 | 23400 |
| 2026-05-02 18:15 | 3.55 | 6260 | 40100 (1984) | 2810 (1981) | 9650 | 3310 | 3940 | 5120 | 5950 | 7910 | 10900 | 11900 | 17000 | 23400 |
| 2026-05-02 17:15 | 3.58 | 6400 | 40100 (1984) | 2810 (1981) | 9650 | 3310 | 3940 | 5120 | 5950 | 7910 | 10900 | 11900 | 17000 | 23400 |
| 2026-05-02 16:15 | 3.61 | 6540 | 40100 (1984) | 2810 (1981) | 9650 | 3310 | 3940 | 5120 | 5950 | 7910 | 10900 | 11900 | 17000 | 23400 |
| 2026-05-02 15:15 | 3.59 | 6450 | 40100 (1984) | 2810 (1981) | 9650 | 3310 | 3940 | 5120 | 5950 | 7910 | 10900 | 11900 | 17000 | 23400 |
| 2026-05-02 14:15 | 3.58 | 6400 | 40100 (1984) | 2810 (1981) | 9650 | 3310 | 3940 | 5120 | 5950 | 7910 | 10900 | 11900 | 17000 | 23400 |
| 2026-05-02 13:15 | 3.56 | 6300 | 40100 (1984) | 2810 (1981) | 9650 | 3310 | 3940 | 5120 | 5950 | 7910 | 10900 | 11900 | 17000 | 23400 |
| 2026-05-02 12:15 | 3.52 | 6120 | 40100 (1984) | 2810 (1981) | 9650 | 3310 | 3940 | 5120 | 5950 | 7910 | 10900 | 11900 | 17000 | 23400 |
| 2026-05-02 11:15 | 3.46 | 5840 | 40100 (1984) | 2810 (1981) | 9650 | 3310 | 3940 | 5120 | 5950 | 7910 | 10900 | 11900 | 17000 | 23400 |
| 2026-05-02 10:15 | 3.40 | 5580 | 40100 (1984) | 2810 (1981) | 9650 | 3310 | 3940 | 5120 | 5950 | 7910 | 10900 | 11900 | 17000 | 23400 |
| 2026-05-02 09:15 | 3.34 | 5320 | 40100 (1984) | 2810 (1981) | 9650 | 3310 | 3940 | 5120 | 5950 | 7910 | 10900 | 11900 | 17000 | 23400 |
| 2026-05-02 08:15 | 3.31 | 5190 | 40100 (1984) | 2810 (1981) | 9650 | 3310 | 3940 | 5120 | 5950 | 7910 | 10900 | 11900 | 17000 | 23400 |
| 2026-05-02 07:15 | 3.25 | 4950 | 40100 (1984) | 2810 (1981) | 9650 | 3310 | 3940 | 5120 | 5950 | 7910 | 10900 | 11900 | 17000 | 23400 |
| 2026-05-02 06:15 | 3.26 | 4990 | 40100 (1984) | 2810 (1981) | 9650 | 3310 | 3940 | 5120 | 5950 | 7910 | 10900 | 11900 | 17000 | 23400 |
| 2026-05-02 05:15 | 3.26 | 4990 | 40100 (1984) | 2810 (1981) | 9650 | 3310 | 3940 | 5120 | 5950 | 7910 | 10900 | 11900 | 17000 | 23400 |
| 2026-05-02 04:15 | 3.28 | 5070 | 40100 (1984) | 2810 (1981) | 9650 | 3310 | 3940 | 5120 | 5950 | 7910 | 10900 | 11900 | 17000 | 23400 |
| 2026-05-02 03:15 | 3.29 | 5110 | 40100 (1984) | 2810 (1981) | 9650 | 3310 | 3940 | 5120 | 5950 | 7910 | 10900 | 11900 | 17000 | 23400 |
| 2026-05-02 02:15 | 3.34 | 5320 | 40100 (1984) | 2810 (1981) | 9650 | 3310 | 3940 | 5120 | 5950 | 7910 | 10900 | 11900 | 17000 | 23400 |
| 2026-05-02 01:15 | 3.37 | 5450 | 40100 (1984) | 2810 (1981) | 9650 | 3310 | 3940 | 5120 | 5950 | 7910 | 10900 | 11900 | 17000 | 23400 |
| 2026-05-02 00:15 | 3.42 | 5670 | 40100 (1984) | 2810 (1981) | 9650 | 3310 | 3940 | 5120 | 5950 | 7910 | 10900 | 11900 | 17000 | 23400 |
| 2026-05-01 23:15 | 3.45 | 5800 | 40100 (1984) | 2810 (1981) | 9650 | 3310 | 3940 | 5120 | 5950 | 7910 | 10900 | 11900 | 17000 | 23400 |
| 2026-05-01 22:15 | 3.50 | 6030 | 37500 (2016) | 2870 (1981) | 9270 | 3440 | 4060 | 5510 | 5830 | 7580 | 11100 | 12100 | 16300 | 19100 |
| 2026-05-01 21:15 | 3.54 | 6210 | 37500 (2016) | 2870 (1981) | 9270 | 3440 | 4060 | 5510 | 5830 | 7580 | 11100 | 12100 | 16300 | 19100 |
| 2026-05-01 20:15 | 3.60 | 6500 | 37500 (2016) | 2870 (1981) | 9270 | 3440 | 4060 | 5510 | 5830 | 7580 | 11100 | 12100 | 16300 | 19100 |
| 2026-05-01 19:15 | 3.62 | 6590 | 37500 (2016) | 2870 (1981) | 9270 | 3440 | 4060 | 5510 | 5830 | 7580 | 11100 | 12100 | 16300 | 19100 |
| 2026-05-01 18:15 | 3.63 | 6640 | 37500 (2016) | 2870 (1981) | 9270 | 3440 | 4060 | 5510 | 5830 | 7580 | 11100 | 12100 | 16300 | 19100 |
| 2026-05-01 17:15 | 3.65 | 6740 | 37500 (2016) | 2870 (1981) | 9270 | 3440 | 4060 | 5510 | 5830 | 7580 | 11100 | 12100 | 16300 | 19100 |
| 2026-05-01 16:15 | 3.66 | 6790 | 37500 (2016) | 2870 (1981) | 9270 | 3440 | 4060 | 5510 | 5830 | 7580 | 11100 | 12100 | 16300 | 19100 |
| 2026-05-01 15:15 | 3.64 | 6690 | 37500 (2016) | 2870 (1981) | 9270 | 3440 | 4060 | 5510 | 5830 | 7580 | 11100 | 12100 | 16300 | 19100 |
| 2026-05-01 14:15 | 3.62 | 6590 | 37500 (2016) | 2870 (1981) | 9270 | 3440 | 4060 | 5510 | 5830 | 7580 | 11100 | 12100 | 16300 | 19100 |
| 2026-05-01 13:15 | 3.59 | 6450 | 37500 (2016) | 2870 (1981) | 9270 | 3440 | 4060 | 5510 | 5830 | 7580 | 11100 | 12100 | 16300 | 19100 |
| 2026-05-01 12:15 | 3.51 | 6070 | 37500 (2016) | 2870 (1981) | 9270 | 3440 | 4060 | 5510 | 5830 | 7580 | 11100 | 12100 | 16300 | 19100 |
| 2026-05-01 11:15 | 3.45 | 5800 | 37500 (2016) | 2870 (1981) | 9270 | 3440 | 4060 | 5510 | 5830 | 7580 | 11100 | 12100 | 16300 | 19100 |
| 2026-05-01 10:15 | 3.35 | 5360 | 37500 (2016) | 2870 (1981) | 9270 | 3440 | 4060 | 5510 | 5830 | 7580 | 11100 | 12100 | 16300 | 19100 |
| 2026-05-01 09:15 | 3.30 | 5150 | 37500 (2016) | 2870 (1981) | 9270 | 3440 | 4060 | 5510 | 5830 | 7580 | 11100 | 12100 | 16300 | 19100 |
| 2026-05-01 08:15 | 3.26 | 4990 | 37500 (2016) | 2870 (1981) | 9270 | 3440 | 4060 | 5510 | 5830 | 7580 | 11100 | 12100 | 16300 | 19100 |
| 2026-05-01 07:15 | 3.24 | 4910 | 37500 (2016) | 2870 (1981) | 9270 | 3440 | 4060 | 5510 | 5830 | 7580 | 11100 | 12100 | 16300 | 19100 |
| 2026-05-01 06:15 | 3.23 | 4870 | 37500 (2016) | 2870 (1981) | 9270 | 3440 | 4060 | 5510 | 5830 | 7580 | 11100 | 12100 | 16300 | 19100 |
| 2026-05-01 05:15 | 3.23 | 4870 | 37500 (2016) | 2870 (1981) | 9270 | 3440 | 4060 | 5510 | 5830 | 7580 | 11100 | 12100 | 16300 | 19100 |
| 2026-05-01 04:15 | 3.26 | 4990 | 37500 (2016) | 2870 (1981) | 9270 | 3440 | 4060 | 5510 | 5830 | 7580 | 11100 | 12100 | 16300 | 19100 |
| 2026-05-01 03:15 | 3.28 | 5070 | 37500 (2016) | 2870 (1981) | 9270 | 3440 | 4060 | 5510 | 5830 | 7580 | 11100 | 12100 | 16300 | 19100 |
| 2026-05-01 02:15 | 3.32 | 5240 | 37500 (2016) | 2870 (1981) | 9270 | 3440 | 4060 | 5510 | 5830 | 7580 | 11100 | 12100 | 16300 | 19100 |
| 2026-05-01 01:15 | 3.36 | 5410 | 37500 (2016) | 2870 (1981) | 9270 | 3440 | 4060 | 5510 | 5830 | 7580 | 11100 | 12100 | 16300 | 19100 |
| 2026-05-01 00:15 | 3.41 | 5620 | 37500 (2016) | 2870 (1981) | 9270 | 3440 | 4060 | 5510 | 5830 | 7580 | 11100 | 12100 | 16300 | 19100 |
| 2026-04-30 23:15 | 3.44 | 5750 | 37500 (2016) | 2870 (1981) | 9270 | 3440 | 4060 | 5510 | 5830 | 7580 | 11100 | 12100 | 16300 | 19100 |
| 2026-04-30 22:15 | 3.50 | 6030 | 33200 (1984) | 2750 (1981) | 9010 | 3550 | 4310 | 5300 | 6160 | 7730 | 10200 | 11700 | 13500 | 21800 |
| 2026-04-30 21:15 | 3.54 | 6210 | 33200 (1984) | 2750 (1981) | 9010 | 3550 | 4310 | 5300 | 6160 | 7730 | 10200 | 11700 | 13500 | 21800 |
| 2026-04-30 20:15 | 3.57 | 6350 | 33200 (1984) | 2750 (1981) | 9010 | 3550 | 4310 | 5300 | 6160 | 7730 | 10200 | 11700 | 13500 | 21800 |
| 2026-04-30 19:15 | 3.62 | 6590 | 33200 (1984) | 2750 (1981) | 9010 | 3550 | 4310 | 5300 | 6160 | 7730 | 10200 | 11700 | 13500 | 21800 |
| 2026-04-30 18:15 | 3.64 | 6690 | 33200 (1984) | 2750 (1981) | 9010 | 3550 | 4310 | 5300 | 6160 | 7730 | 10200 | 11700 | 13500 | 21800 |
| 2026-04-30 17:15 | 3.67 | 6840 | 33200 (1984) | 2750 (1981) | 9010 | 3550 | 4310 | 5300 | 6160 | 7730 | 10200 | 11700 | 13500 | 21800 |
| 2026-04-30 16:15 | 3.67 | 6840 | 33200 (1984) | 2750 (1981) | 9010 | 3550 | 4310 | 5300 | 6160 | 7730 | 10200 | 11700 | 13500 | 21800 |
| 2026-04-30 15:15 | 3.65 | 6740 | 33200 (1984) | 2750 (1981) | 9010 | 3550 | 4310 | 5300 | 6160 | 7730 | 10200 | 11700 | 13500 | 21800 |
| 2026-04-30 14:15 | 3.64 | 6690 | 33200 (1984) | 2750 (1981) | 9010 | 3550 | 4310 | 5300 | 6160 | 7730 | 10200 | 11700 | 13500 | 21800 |
| 2026-04-30 13:15 | 3.60 | 6500 | 33200 (1984) | 2750 (1981) | 9010 | 3550 | 4310 | 5300 | 6160 | 7730 | 10200 | 11700 | 13500 | 21800 |
| 2026-04-30 12:15 | 3.54 | 6210 | 33200 (1984) | 2750 (1981) | 9010 | 3550 | 4310 | 5300 | 6160 | 7730 | 10200 | 11700 | 13500 | 21800 |
| 2026-04-30 11:15 | 3.47 | 5890 | 33200 (1984) | 2750 (1981) | 9010 | 3550 | 4310 | 5300 | 6160 | 7730 | 10200 | 11700 | 13500 | 21800 |
| 2026-04-30 10:15 | 3.38 | 5490 | 33200 (1984) | 2750 (1981) | 9010 | 3550 | 4310 | 5300 | 6160 | 7730 | 10200 | 11700 | 13500 | 21800 |
| 2026-04-30 09:15 | 3.30 | 5150 | 33200 (1984) | 2750 (1981) | 9010 | 3550 | 4310 | 5300 | 6160 | 7730 | 10200 | 11700 | 13500 | 21800 |
| 2026-04-30 08:15 | 3.26 | 4990 | 33200 (1984) | 2750 (1981) | 9010 | 3550 | 4310 | 5300 | 6160 | 7730 | 10200 | 11700 | 13500 | 21800 |
| 2026-04-30 07:15 | 3.23 | 4870 | 33200 (1984) | 2750 (1981) | 9010 | 3550 | 4310 | 5300 | 6160 | 7730 | 10200 | 11700 | 13500 | 21800 |
| 2026-04-30 06:15 | 3.21 | 4790 | 33200 (1984) | 2750 (1981) | 9010 | 3550 | 4310 | 5300 | 6160 | 7730 | 10200 | 11700 | 13500 | 21800 |
| 2026-04-30 05:15 | 3.21 | 4790 | 33200 (1984) | 2750 (1981) | 9010 | 3550 | 4310 | 5300 | 6160 | 7730 | 10200 | 11700 | 13500 | 21800 |
| 2026-04-30 04:15 | 3.24 | 4910 | 33200 (1984) | 2750 (1981) | 9010 | 3550 | 4310 | 5300 | 6160 | 7730 | 10200 | 11700 | 13500 | 21800 |
| 2026-04-30 03:15 | 3.26 | 4990 | 33200 (1984) | 2750 (1981) | 9010 | 3550 | 4310 | 5300 | 6160 | 7730 | 10200 | 11700 | 13500 | 21800 |
| 2026-04-30 02:15 | 3.30 | 5150 | 33200 (1984) | 2750 (1981) | 9010 | 3550 | 4310 | 5300 | 6160 | 7730 | 10200 | 11700 | 13500 | 21800 |
| 2026-04-30 01:15 | 3.34 | 5320 | 33200 (1984) | 2750 (1981) | 9010 | 3550 | 4310 | 5300 | 6160 | 7730 | 10200 | 11700 | 13500 | 21800 |
| 2026-04-30 00:15 | 3.38 | 5490 | 33200 (1984) | 2750 (1981) | 9010 | 3550 | 4310 | 5300 | 6160 | 7730 | 10200 | 11700 | 13500 | 21800 |
| 2026-04-29 23:15 | 3.41 | 5620 | 33200 (1984) | 2750 (1981) | 9010 | 3550 | 4310 | 5300 | 6160 | 7730 | 10200 | 11700 | 13500 | 21800 |
| 2026-04-29 22:15 | 3.44 | 5750 | 31000 (1986) | 3200 (1967) | 9290 | 3810 | 4350 | 5230 | 5860 | 7380 | 10700 | 12400 | 15300 | 25900 |
| 2026-04-29 21:15 | 3.46 | 5840 | 31000 (1986) | 3200 (1967) | 9290 | 3810 | 4350 | 5230 | 5860 | 7380 | 10700 | 12400 | 15300 | 25900 |
| 2026-04-29 20:15 | 3.49 | 5980 | 31000 (1986) | 3200 (1967) | 9290 | 3810 | 4350 | 5230 | 5860 | 7380 | 10700 | 12400 | 15300 | 25900 |
| 2026-04-29 19:15 | 3.49 | 5980 | 31000 (1986) | 3200 (1967) | 9290 | 3810 | 4350 | 5230 | 5860 | 7380 | 10700 | 12400 | 15300 | 25900 |
| 2026-04-29 18:15 | 3.48 | 5930 | 31000 (1986) | 3200 (1967) | 9290 | 3810 | 4350 | 5230 | 5860 | 7380 | 10700 | 12400 | 15300 | 25900 |
| 2026-04-29 17:15 | 3.45 | 5800 | 31000 (1986) | 3200 (1967) | 9290 | 3810 | 4350 | 5230 | 5860 | 7380 | 10700 | 12400 | 15300 | 25900 |
| 2026-04-29 16:15 | 3.39 | 5530 | 31000 (1986) | 3200 (1967) | 9290 | 3810 | 4350 | 5230 | 5860 | 7380 | 10700 | 12400 | 15300 | 25900 |
| 2026-04-29 15:15 | 3.33 | 5280 | 31000 (1986) | 3200 (1967) | 9290 | 3810 | 4350 | 5230 | 5860 | 7380 | 10700 | 12400 | 15300 | 25900 |
| 2026-04-29 14:15 | 3.25 | 4950 | 31000 (1986) | 3200 (1967) | 9290 | 3810 | 4350 | 5230 | 5860 | 7380 | 10700 | 12400 | 15300 | 25900 |
| 2026-04-29 13:15 | 3.19 | 4710 | 31000 (1986) | 3200 (1967) | 9290 | 3810 | 4350 | 5230 | 5860 | 7380 | 10700 | 12400 | 15300 | 25900 |
| 2026-04-29 12:15 | 3.15 | 4550 | 31000 (1986) | 3200 (1967) | 9290 | 3810 | 4350 | 5230 | 5860 | 7380 | 10700 | 12400 | 15300 | 25900 |
| 2026-04-29 11:15 | 3.10 | 4370 | 31000 (1986) | 3200 (1967) | 9290 | 3810 | 4350 | 5230 | 5860 | 7380 | 10700 | 12400 | 15300 | 25900 |
| 2026-04-29 10:15 | 3.09 | 4330 | 31000 (1986) | 3200 (1967) | 9290 | 3810 | 4350 | 5230 | 5860 | 7380 | 10700 | 12400 | 15300 | 25900 |
| 2026-04-29 09:15 | 3.08 | 4290 | 31000 (1986) | 3200 (1967) | 9290 | 3810 | 4350 | 5230 | 5860 | 7380 | 10700 | 12400 | 15300 | 25900 |
| 2026-04-29 08:15 | 3.10 | 4370 | 31000 (1986) | 3200 (1967) | 9290 | 3810 | 4350 | 5230 | 5860 | 7380 | 10700 | 12400 | 15300 | 25900 |
| 2026-04-29 07:15 | 3.12 | 4440 | 31000 (1986) | 3200 (1967) | 9290 | 3810 | 4350 | 5230 | 5860 | 7380 | 10700 | 12400 | 15300 | 25900 |
| 2026-04-29 06:15 | 3.14 | 4520 | 31000 (1986) | 3200 (1967) | 9290 | 3810 | 4350 | 5230 | 5860 | 7380 | 10700 | 12400 | 15300 | 25900 |
| 2026-04-29 05:15 | 3.17 | 4630 | 31000 (1986) | 3200 (1967) | 9290 | 3810 | 4350 | 5230 | 5860 | 7380 | 10700 | 12400 | 15300 | 25900 |
| 2026-04-29 04:15 | 3.21 | 4790 | 31000 (1986) | 3200 (1967) | 9290 | 3810 | 4350 | 5230 | 5860 | 7380 | 10700 | 12400 | 15300 | 25900 |
| 2026-04-29 03:15 | 3.25 | 4950 | 31000 (1986) | 3200 (1967) | 9290 | 3810 | 4350 | 5230 | 5860 | 7380 | 10700 | 12400 | 15300 | 25900 |
| 2026-04-29 02:15 | 3.29 | 5110 | 31000 (1986) | 3200 (1967) | 9290 | 3810 | 4350 | 5230 | 5860 | 7380 | 10700 | 12400 | 15300 | 25900 |
| 2026-04-29 01:15 | 3.34 | 5320 | 31000 (1986) | 3200 (1967) | 9290 | 3810 | 4350 | 5230 | 5860 | 7380 | 10700 | 12400 | 15300 | 25900 |
| 2026-04-29 00:15 | 3.39 | 5530 | 31000 (1986) | 3200 (1967) | 9290 | 3810 | 4350 | 5230 | 5860 | 7380 | 10700 | 12400 | 15300 | 25900 |
| 2026-04-28 23:15 | 3.43 | 5710 | 31000 (1986) | 3200 (1967) | 9290 | 3810 | 4350 | 5230 | 5860 | 7380 | 10700 | 12400 | 15300 | 25900 |
| 2026-04-28 22:15 | 3.46 | 5840 | 39300 (1986) | 3210 (1981) | 9780 | 3710 | 4490 | 5250 | 5730 | 7630 | 11100 | 12000 | 16800 | 29700 |
| 2026-04-28 21:15 | 3.50 | 6030 | 39300 (1986) | 3210 (1981) | 9780 | 3710 | 4490 | 5250 | 5730 | 7630 | 11100 | 12000 | 16800 | 29700 |
| 2026-04-28 20:15 | 3.55 | 6260 | 39300 (1986) | 3210 (1981) | 9780 | 3710 | 4490 | 5250 | 5730 | 7630 | 11100 | 12000 | 16800 | 29700 |
| 2026-04-28 19:15 | 3.58 | 6400 | 39300 (1986) | 3210 (1981) | 9780 | 3710 | 4490 | 5250 | 5730 | 7630 | 11100 | 12000 | 16800 | 29700 |
| 2026-04-28 18:15 | 3.59 | 6450 | 39300 (1986) | 3210 (1981) | 9780 | 3710 | 4490 | 5250 | 5730 | 7630 | 11100 | 12000 | 16800 | 29700 |
| 2026-04-28 17:15 | 3.59 | 6450 | 39300 (1986) | 3210 (1981) | 9780 | 3710 | 4490 | 5250 | 5730 | 7630 | 11100 | 12000 | 16800 | 29700 |
| 2026-04-28 16:15 | 3.58 | 6400 | 39300 (1986) | 3210 (1981) | 9780 | 3710 | 4490 | 5250 | 5730 | 7630 | 11100 | 12000 | 16800 | 29700 |
| 2026-04-28 15:15 | 3.56 | 6300 | 39300 (1986) | 3210 (1981) | 9780 | 3710 | 4490 | 5250 | 5730 | 7630 | 11100 | 12000 | 16800 | 29700 |
| 2026-04-28 14:15 | 3.51 | 6070 | 39300 (1986) | 3210 (1981) | 9780 | 3710 | 4490 | 5250 | 5730 | 7630 | 11100 | 12000 | 16800 | 29700 |
| 2026-04-28 13:15 | 3.43 | 5710 | 39300 (1986) | 3210 (1981) | 9780 | 3710 | 4490 | 5250 | 5730 | 7630 | 11100 | 12000 | 16800 | 29700 |
| 2026-04-28 12:15 | 3.35 | 5360 | 39300 (1986) | 3210 (1981) | 9780 | 3710 | 4490 | 5250 | 5730 | 7630 | 11100 | 12000 | 16800 | 29700 |
| 2026-04-28 11:15 | 3.24 | 4910 | 39300 (1986) | 3210 (1981) | 9780 | 3710 | 4490 | 5250 | 5730 | 7630 | 11100 | 12000 | 16800 | 29700 |
| 2026-04-28 10:15 | 3.20 | 4750 | 39300 (1986) | 3210 (1981) | 9780 | 3710 | 4490 | 5250 | 5730 | 7630 | 11100 | 12000 | 16800 | 29700 |
| 2026-04-28 09:15 | 3.17 | 4630 | 39300 (1986) | 3210 (1981) | 9780 | 3710 | 4490 | 5250 | 5730 | 7630 | 11100 | 12000 | 16800 | 29700 |
| 2026-04-28 08:15 | 3.16 | 4590 | 39300 (1986) | 3210 (1981) | 9780 | 3710 | 4490 | 5250 | 5730 | 7630 | 11100 | 12000 | 16800 | 29700 |
| 2026-04-28 07:15 | 3.17 | 4630 | 39300 (1986) | 3210 (1981) | 9780 | 3710 | 4490 | 5250 | 5730 | 7630 | 11100 | 12000 | 16800 | 29700 |
| 2026-04-28 06:15 | 3.20 | 4750 | 39300 (1986) | 3210 (1981) | 9780 | 3710 | 4490 | 5250 | 5730 | 7630 | 11100 | 12000 | 16800 | 29700 |
| 2026-04-28 05:15 | 3.23 | 4870 | 39300 (1986) | 3210 (1981) | 9780 | 3710 | 4490 | 5250 | 5730 | 7630 | 11100 | 12000 | 16800 | 29700 |
| 2026-04-28 04:15 | 3.24 | 4910 | 39300 (1986) | 3210 (1981) | 9780 | 3710 | 4490 | 5250 | 5730 | 7630 | 11100 | 12000 | 16800 | 29700 |
| 2026-04-28 03:15 | 3.29 | 5110 | 39300 (1986) | 3210 (1981) | 9780 | 3710 | 4490 | 5250 | 5730 | 7630 | 11100 | 12000 | 16800 | 29700 |
| 2026-04-28 02:15 | 3.33 | 5280 | 39300 (1986) | 3210 (1981) | 9780 | 3710 | 4490 | 5250 | 5730 | 7630 | 11100 | 12000 | 16800 | 29700 |
| 2026-04-28 01:15 | 3.33 | 5280 | 39300 (1986) | 3210 (1981) | 9780 | 3710 | 4490 | 5250 | 5730 | 7630 | 11100 | 12000 | 16800 | 29700 |
| 2026-04-28 00:15 | 3.35 | 5360 | 39300 (1986) | 3210 (1981) | 9780 | 3710 | 4490 | 5250 | 5730 | 7630 | 11100 | 12000 | 16800 | 29700 |
| 2026-04-27 23:15 | 3.35 | 5360 | 39300 (1986) | 3210 (1981) | 9780 | 3710 | 4490 | 5250 | 5730 | 7630 | 11100 | 12000 | 16800 | 29700 |
| 2026-04-27 22:15 | 3.35 | 5360 | 32700 (1984) | 3330 (1967) | 9100 | 3740 | 4420 | 4970 | 5980 | 7370 | 10600 | 11400 | 16400 | 22100 |
| 2026-04-27 21:15 | 3.31 | 5190 | 32700 (1984) | 3330 (1967) | 9100 | 3740 | 4420 | 4970 | 5980 | 7370 | 10600 | 11400 | 16400 | 22100 |
| 2026-04-27 20:15 | 3.26 | 4990 | 32700 (1984) | 3330 (1967) | 9100 | 3740 | 4420 | 4970 | 5980 | 7370 | 10600 | 11400 | 16400 | 22100 |
| 2026-04-27 19:15 | 3.21 | 4790 | 32700 (1984) | 3330 (1967) | 9100 | 3740 | 4420 | 4970 | 5980 | 7370 | 10600 | 11400 | 16400 | 22100 |
| 2026-04-27 18:15 | 3.17 | 4630 | 32700 (1984) | 3330 (1967) | 9100 | 3740 | 4420 | 4970 | 5980 | 7370 | 10600 | 11400 | 16400 | 22100 |
| 2026-04-27 17:15 | 3.12 | 4440 | 32700 (1984) | 3330 (1967) | 9100 | 3740 | 4420 | 4970 | 5980 | 7370 | 10600 | 11400 | 16400 | 22100 |
| 2026-04-27 16:15 | 3.06 | 4220 | 32700 (1984) | 3330 (1967) | 9100 | 3740 | 4420 | 4970 | 5980 | 7370 | 10600 | 11400 | 16400 | 22100 |
| 2026-04-27 15:15 | 3.05 | 4180 | 32700 (1984) | 3330 (1967) | 9100 | 3740 | 4420 | 4970 | 5980 | 7370 | 10600 | 11400 | 16400 | 22100 |
| 2026-04-27 14:15 | 3.03 | 4110 | 32700 (1984) | 3330 (1967) | 9100 | 3740 | 4420 | 4970 | 5980 | 7370 | 10600 | 11400 | 16400 | 22100 |
| 2026-04-27 13:15 | 3.02 | 4070 | 32700 (1984) | 3330 (1967) | 9100 | 3740 | 4420 | 4970 | 5980 | 7370 | 10600 | 11400 | 16400 | 22100 |
| 2026-04-27 12:15 | 3.03 | 4110 | 32700 (1984) | 3330 (1967) | 9100 | 3740 | 4420 | 4970 | 5980 | 7370 | 10600 | 11400 | 16400 | 22100 |
| 2026-04-27 11:15 | 3.04 | 4150 | 32700 (1984) | 3330 (1967) | 9100 | 3740 | 4420 | 4970 | 5980 | 7370 | 10600 | 11400 | 16400 | 22100 |
| 2026-04-27 10:15 | 3.05 | 4180 | 32700 (1984) | 3330 (1967) | 9100 | 3740 | 4420 | 4970 | 5980 | 7370 | 10600 | 11400 | 16400 | 22100 |
| 2026-04-27 09:15 | 3.07 | 4260 | 32700 (1984) | 3330 (1967) | 9100 | 3740 | 4420 | 4970 | 5980 | 7370 | 10600 | 11400 | 16400 | 22100 |
| 2026-04-27 08:15 | 3.12 | 4440 | 32700 (1984) | 3330 (1967) | 9100 | 3740 | 4420 | 4970 | 5980 | 7370 | 10600 | 11400 | 16400 | 22100 |
| 2026-04-27 07:15 | 3.17 | 4630 | 32700 (1984) | 3330 (1967) | 9100 | 3740 | 4420 | 4970 | 5980 | 7370 | 10600 | 11400 | 16400 | 22100 |
| 2026-04-27 06:15 | 3.20 | 4750 | 32700 (1984) | 3330 (1967) | 9100 | 3740 | 4420 | 4970 | 5980 | 7370 | 10600 | 11400 | 16400 | 22100 |
| 2026-04-27 05:15 | 3.25 | 4950 | 32700 (1984) | 3330 (1967) | 9100 | 3740 | 4420 | 4970 | 5980 | 7370 | 10600 | 11400 | 16400 | 22100 |
| 2026-04-27 04:15 | 3.31 | 5190 | 32700 (1984) | 3330 (1967) | 9100 | 3740 | 4420 | 4970 | 5980 | 7370 | 10600 | 11400 | 16400 | 22100 |
| 2026-04-27 03:15 | 3.36 | 5410 | 32700 (1984) | 3330 (1967) | 9100 | 3740 | 4420 | 4970 | 5980 | 7370 | 10600 | 11400 | 16400 | 22100 |
| 2026-04-27 02:15 | 3.42 | 5670 | 32700 (1984) | 3330 (1967) | 9100 | 3740 | 4420 | 4970 | 5980 | 7370 | 10600 | 11400 | 16400 | 22100 |
| 2026-04-27 01:15 | 3.43 | 5710 | 32700 (1984) | 3330 (1967) | 9100 | 3740 | 4420 | 4970 | 5980 | 7370 | 10600 | 11400 | 16400 | 22100 |
| 2026-04-27 00:15 | 3.50 | 6030 | 32700 (1984) | 3330 (1967) | 9100 | 3740 | 4420 | 4970 | 5980 | 7370 | 10600 | 11400 | 16400 | 22100 |
| 2026-04-26 23:15 | 3.52 | 6120 | 32700 (1984) | 3330 (1967) | 9100 | 3740 | 4420 | 4970 | 5980 | 7370 | 10600 | 11400 | 16400 | 22100 |
| 2026-04-26 22:15 | 3.54 | 6210 | 32000 (1984) | 3170 (1967) | 8960 | 3860 | 4090 | 5220 | 5460 | 7530 | 10700 | 11500 | 15300 | 18300 |
| 2026-04-26 21:15 | 3.55 | 6260 | 32000 (1984) | 3170 (1967) | 8960 | 3860 | 4090 | 5220 | 5460 | 7530 | 10700 | 11500 | 15300 | 18300 |
| 2026-04-26 20:15 | 3.54 | 6210 | 32000 (1984) | 3170 (1967) | 8960 | 3860 | 4090 | 5220 | 5460 | 7530 | 10700 | 11500 | 15300 | 18300 |
| 2026-04-26 19:15 | 3.53 | 6160 | 32000 (1984) | 3170 (1967) | 8960 | 3860 | 4090 | 5220 | 5460 | 7530 | 10700 | 11500 | 15300 | 18300 |
| 2026-04-26 18:15 | 3.51 | 6070 | 32000 (1984) | 3170 (1967) | 8960 | 3860 | 4090 | 5220 | 5460 | 7530 | 10700 | 11500 | 15300 | 18300 |
| 2026-04-26 17:15 | 3.41 | 5620 | 32000 (1984) | 3170 (1967) | 8960 | 3860 | 4090 | 5220 | 5460 | 7530 | 10700 | 11500 | 15300 | 18300 |
| 2026-04-26 16:15 | 3.39 | 5530 | 32000 (1984) | 3170 (1967) | 8960 | 3860 | 4090 | 5220 | 5460 | 7530 | 10700 | 11500 | 15300 | 18300 |
| 2026-04-26 15:15 | 3.28 | 5070 | 32000 (1984) | 3170 (1967) | 8960 | 3860 | 4090 | 5220 | 5460 | 7530 | 10700 | 11500 | 15300 | 18300 |
| 2026-04-26 14:15 | 3.17 | 4630 | 32000 (1984) | 3170 (1967) | 8960 | 3860 | 4090 | 5220 | 5460 | 7530 | 10700 | 11500 | 15300 | 18300 |
| 2026-04-26 13:15 | 3.07 | 4260 | 32000 (1984) | 3170 (1967) | 8960 | 3860 | 4090 | 5220 | 5460 | 7530 | 10700 | 11500 | 15300 | 18300 |
| 2026-04-26 12:15 | 3.01 | 4040 | 32000 (1984) | 3170 (1967) | 8960 | 3860 | 4090 | 5220 | 5460 | 7530 | 10700 | 11500 | 15300 | 18300 |
| 2026-04-26 11:15 | 2.98 | 3930 | 32000 (1984) | 3170 (1967) | 8960 | 3860 | 4090 | 5220 | 5460 | 7530 | 10700 | 11500 | 15300 | 18300 |
| 2026-04-26 10:15 | 2.96 | 3860 | 32000 (1984) | 3170 (1967) | 8960 | 3860 | 4090 | 5220 | 5460 | 7530 | 10700 | 11500 | 15300 | 18300 |
| 2026-04-26 09:15 | 2.96 | 3860 | 32000 (1984) | 3170 (1967) | 8960 | 3860 | 4090 | 5220 | 5460 | 7530 | 10700 | 11500 | 15300 | 18300 |
| 2026-04-26 08:15 | 3.00 | 4000 | 32000 (1984) | 3170 (1967) | 8960 | 3860 | 4090 | 5220 | 5460 | 7530 | 10700 | 11500 | 15300 | 18300 |
| 2026-04-26 07:15 | 3.05 | 4180 | 32000 (1984) | 3170 (1967) | 8960 | 3860 | 4090 | 5220 | 5460 | 7530 | 10700 | 11500 | 15300 | 18300 |
| 2026-04-26 06:15 | 3.10 | 4370 | 32000 (1984) | 3170 (1967) | 8960 | 3860 | 4090 | 5220 | 5460 | 7530 | 10700 | 11500 | 15300 | 18300 |
| 2026-04-26 05:15 | 3.10 | 4370 | 32000 (1984) | 3170 (1967) | 8960 | 3860 | 4090 | 5220 | 5460 | 7530 | 10700 | 11500 | 15300 | 18300 |
| 2026-04-26 04:15 | 3.14 | 4520 | 32000 (1984) | 3170 (1967) | 8960 | 3860 | 4090 | 5220 | 5460 | 7530 | 10700 | 11500 | 15300 | 18300 |
| 2026-04-26 03:15 | 3.14 | 4520 | 32000 (1984) | 3170 (1967) | 8960 | 3860 | 4090 | 5220 | 5460 | 7530 | 10700 | 11500 | 15300 | 18300 |
| 2026-04-26 02:15 | 3.11 | 4400 | 32000 (1984) | 3170 (1967) | 8960 | 3860 | 4090 | 5220 | 5460 | 7530 | 10700 | 11500 | 15300 | 18300 |
| 2026-04-26 01:15 | 3.15 | 4550 | 32000 (1984) | 3170 (1967) | 8960 | 3860 | 4090 | 5220 | 5460 | 7530 | 10700 | 11500 | 15300 | 18300 |
| 2026-04-26 00:15 | 3.16 | 4590 | 32000 (1984) | 3170 (1967) | 8960 | 3860 | 4090 | 5220 | 5460 | 7530 | 10700 | 11500 | 15300 | 18300 |
| 2026-04-25 23:15 | 3.17 | 4630 | 32000 (1984) | 3170 (1967) | 8960 | 3860 | 4090 | 5220 | 5460 | 7530 | 10700 | 11500 | 15300 | 18300 |
| 2026-04-25 22:15 | 3.09 | 4330 | 35700 (1984) | 3050 (1967) | 9140 | 3810 | 4230 | 5140 | 5620 | 7770 | 11000 | 12200 | 16300 | 18800 |
| 2026-04-25 21:15 | 3.08 | 4290 | 35700 (1984) | 3050 (1967) | 9140 | 3810 | 4230 | 5140 | 5620 | 7770 | 11000 | 12200 | 16300 | 18800 |
| 2026-04-25 20:15 | 3.06 | 4220 | 35700 (1984) | 3050 (1967) | 9140 | 3810 | 4230 | 5140 | 5620 | 7770 | 11000 | 12200 | 16300 | 18800 |
| 2026-04-25 19:15 | 3.02 | 4070 | 35700 (1984) | 3050 (1967) | 9140 | 3810 | 4230 | 5140 | 5620 | 7770 | 11000 | 12200 | 16300 | 18800 |
| 2026-04-25 18:15 | 2.98 | 3930 | 35700 (1984) | 3050 (1967) | 9140 | 3810 | 4230 | 5140 | 5620 | 7770 | 11000 | 12200 | 16300 | 18800 |
| 2026-04-25 17:15 | 2.95 | 3830 | 35700 (1984) | 3050 (1967) | 9140 | 3810 | 4230 | 5140 | 5620 | 7770 | 11000 | 12200 | 16300 | 18800 |
| 2026-04-25 16:15 | 2.94 | 3800 | 35700 (1984) | 3050 (1967) | 9140 | 3810 | 4230 | 5140 | 5620 | 7770 | 11000 | 12200 | 16300 | 18800 |
| 2026-04-25 15:15 | 2.91 | 3690 | 35700 (1984) | 3050 (1967) | 9140 | 3810 | 4230 | 5140 | 5620 | 7770 | 11000 | 12200 | 16300 | 18800 |
| 2026-04-25 14:15 | 2.88 | 3600 | 35700 (1984) | 3050 (1967) | 9140 | 3810 | 4230 | 5140 | 5620 | 7770 | 11000 | 12200 | 16300 | 18800 |
| 2026-04-25 13:15 | 2.89 | 3630 | 35700 (1984) | 3050 (1967) | 9140 | 3810 | 4230 | 5140 | 5620 | 7770 | 11000 | 12200 | 16300 | 18800 |
| 2026-04-25 12:15 | 2.88 | 3600 | 35700 (1984) | 3050 (1967) | 9140 | 3810 | 4230 | 5140 | 5620 | 7770 | 11000 | 12200 | 16300 | 18800 |
| 2026-04-25 11:15 | 2.91 | 3690 | 35700 (1984) | 3050 (1967) | 9140 | 3810 | 4230 | 5140 | 5620 | 7770 | 11000 | 12200 | 16300 | 18800 |
| 2026-04-25 10:15 | 2.92 | 3730 | 35700 (1984) | 3050 (1967) | 9140 | 3810 | 4230 | 5140 | 5620 | 7770 | 11000 | 12200 | 16300 | 18800 |
| 2026-04-25 09:15 | 2.94 | 3800 | 35700 (1984) | 3050 (1967) | 9140 | 3810 | 4230 | 5140 | 5620 | 7770 | 11000 | 12200 | 16300 | 18800 |
| 2026-04-25 08:15 | 2.95 | 3830 | 35700 (1984) | 3050 (1967) | 9140 | 3810 | 4230 | 5140 | 5620 | 7770 | 11000 | 12200 | 16300 | 18800 |
| 2026-04-25 07:15 | 2.99 | 3970 | 35700 (1984) | 3050 (1967) | 9140 | 3810 | 4230 | 5140 | 5620 | 7770 | 11000 | 12200 | 16300 | 18800 |
| 2026-04-25 06:15 | 3.01 | 4040 | 35700 (1984) | 3050 (1967) | 9140 | 3810 | 4230 | 5140 | 5620 | 7770 | 11000 | 12200 | 16300 | 18800 |
| 2026-04-25 05:15 | 3.04 | 4150 | 35700 (1984) | 3050 (1967) | 9140 | 3810 | 4230 | 5140 | 5620 | 7770 | 11000 | 12200 | 16300 | 18800 |
| 2026-04-25 04:15 | 3.08 | 4290 | 35700 (1984) | 3050 (1967) | 9140 | 3810 | 4230 | 5140 | 5620 | 7770 | 11000 | 12200 | 16300 | 18800 |
| 2026-04-25 03:15 | 3.12 | 4440 | 35700 (1984) | 3050 (1967) | 9140 | 3810 | 4230 | 5140 | 5620 | 7770 | 11000 | 12200 | 16300 | 18800 |
| 2026-04-25 02:15 | 3.14 | 4520 | 35700 (1984) | 3050 (1967) | 9140 | 3810 | 4230 | 5140 | 5620 | 7770 | 11000 | 12200 | 16300 | 18800 |
| 2026-04-25 01:15 | 3.17 | 4630 | 35700 (1984) | 3050 (1967) | 9140 | 3810 | 4230 | 5140 | 5620 | 7770 | 11000 | 12200 | 16300 | 18800 |
| 2026-04-25 00:15 | 3.19 | 4710 | 35700 (1984) | 3050 (1967) | 9140 | 3810 | 4230 | 5140 | 5620 | 7770 | 11000 | 12200 | 16300 | 18800 |
| 2026-04-24 23:15 | 3.22 | 4830 | 35700 (1984) | 3050 (1967) | 9140 | 3810 | 4230 | 5140 | 5620 | 7770 | 11000 | 12200 | 16300 | 18800 |
| 2026-04-24 22:15 | 3.22 | 4830 | 41200 (1984) | 3070 (1967) | 9290 | 3650 | 4350 | 4980 | 5730 | 8230 | 11200 | 12900 | 15800 | 19500 |
| 2026-04-24 21:15 | 3.24 | 4910 | 41200 (1984) | 3070 (1967) | 9290 | 3650 | 4350 | 4980 | 5730 | 8230 | 11200 | 12900 | 15800 | 19500 |
| 2026-04-24 20:15 | 3.26 | 4990 | 41200 (1984) | 3070 (1967) | 9290 | 3650 | 4350 | 4980 | 5730 | 8230 | 11200 | 12900 | 15800 | 19500 |
| 2026-04-24 19:15 | 3.28 | 5070 | 41200 (1984) | 3070 (1967) | 9290 | 3650 | 4350 | 4980 | 5730 | 8230 | 11200 | 12900 | 15800 | 19500 |
| 2026-04-24 18:15 | 3.27 | 5030 | 41200 (1984) | 3070 (1967) | 9290 | 3650 | 4350 | 4980 | 5730 | 8230 | 11200 | 12900 | 15800 | 19500 |
| 2026-04-24 17:15 | 3.26 | 4990 | 41200 (1984) | 3070 (1967) | 9290 | 3650 | 4350 | 4980 | 5730 | 8230 | 11200 | 12900 | 15800 | 19500 |
| 2026-04-24 16:15 | 3.23 | 4870 | 41200 (1984) | 3070 (1967) | 9290 | 3650 | 4350 | 4980 | 5730 | 8230 | 11200 | 12900 | 15800 | 19500 |
| 2026-04-24 15:15 | 3.21 | 4790 | 41200 (1984) | 3070 (1967) | 9290 | 3650 | 4350 | 4980 | 5730 | 8230 | 11200 | 12900 | 15800 | 19500 |
| 2026-04-24 14:15 | 3.16 | 4590 | 41200 (1984) | 3070 (1967) | 9290 | 3650 | 4350 | 4980 | 5730 | 8230 | 11200 | 12900 | 15800 | 19500 |
| 2026-04-24 13:15 | 3.13 | 4480 | 41200 (1984) | 3070 (1967) | 9290 | 3650 | 4350 | 4980 | 5730 | 8230 | 11200 | 12900 | 15800 | 19500 |
| 2026-04-24 12:15 | 3.10 | 4370 | 41200 (1984) | 3070 (1967) | 9290 | 3650 | 4350 | 4980 | 5730 | 8230 | 11200 | 12900 | 15800 | 19500 |
| 2026-04-24 11:15 | 3.09 | 4330 | 41200 (1984) | 3070 (1967) | 9290 | 3650 | 4350 | 4980 | 5730 | 8230 | 11200 | 12900 | 15800 | 19500 |
| 2026-04-24 10:15 | 3.07 | 4260 | 41200 (1984) | 3070 (1967) | 9290 | 3650 | 4350 | 4980 | 5730 | 8230 | 11200 | 12900 | 15800 | 19500 |
| 2026-04-24 09:15 | 3.08 | 4290 | 41200 (1984) | 3070 (1967) | 9290 | 3650 | 4350 | 4980 | 5730 | 8230 | 11200 | 12900 | 15800 | 19500 |
| 2026-04-24 08:15 | 3.07 | 4260 | 41200 (1984) | 3070 (1967) | 9290 | 3650 | 4350 | 4980 | 5730 | 8230 | 11200 | 12900 | 15800 | 19500 |
| 2026-04-24 07:15 | 3.14 | 4520 | 41200 (1984) | 3070 (1967) | 9290 | 3650 | 4350 | 4980 | 5730 | 8230 | 11200 | 12900 | 15800 | 19500 |
| 2026-04-24 06:15 | 3.16 | 4590 | 41200 (1984) | 3070 (1967) | 9290 | 3650 | 4350 | 4980 | 5730 | 8230 | 11200 | 12900 | 15800 | 19500 |
| 2026-04-24 05:15 | 3.22 | 4830 | 41200 (1984) | 3070 (1967) | 9290 | 3650 | 4350 | 4980 | 5730 | 8230 | 11200 | 12900 | 15800 | 19500 |
| 2026-04-24 04:15 | 3.30 | 5150 | 41200 (1984) | 3070 (1967) | 9290 | 3650 | 4350 | 4980 | 5730 | 8230 | 11200 | 12900 | 15800 | 19500 |
| 2026-04-24 03:15 | 3.32 | 5240 | 41200 (1984) | 3070 (1967) | 9290 | 3650 | 4350 | 4980 | 5730 | 8230 | 11200 | 12900 | 15800 | 19500 |
| 2026-04-24 02:15 | 3.37 | 5450 | 41200 (1984) | 3070 (1967) | 9290 | 3650 | 4350 | 4980 | 5730 | 8230 | 11200 | 12900 | 15800 | 19500 |
| 2026-04-24 01:15 | 3.48 | 5930 | 41200 (1984) | 3070 (1967) | 9290 | 3650 | 4350 | 4980 | 5730 | 8230 | 11200 | 12900 | 15800 | 19500 |
| 2026-04-24 00:15 | 3.49 | 5980 | 41200 (1984) | 3070 (1967) | 9290 | 3650 | 4350 | 4980 | 5730 | 8230 | 11200 | 12900 | 15800 | 19500 |
| 2026-04-23 23:15 | 3.57 | 6350 | 41200 (1984) | 3070 (1967) | 9290 | 3650 | 4350 | 4980 | 5730 | 8230 | 11200 | 12900 | 15800 | 19500 |
| 2026-04-23 22:15 | 3.65 | 6740 | 48300 (1984) | 3420 (1967) | 9510 | 3840 | 3970 | 4830 | 5430 | 8610 | 11100 | 11800 | 16400 | 20000 |
| 2026-04-23 21:15 | 3.66 | 6790 | 48300 (1984) | 3420 (1967) | 9510 | 3840 | 3970 | 4830 | 5430 | 8610 | 11100 | 11800 | 16400 | 20000 |
| 2026-04-23 20:15 | 3.70 | 6990 | 48300 (1984) | 3420 (1967) | 9510 | 3840 | 3970 | 4830 | 5430 | 8610 | 11100 | 11800 | 16400 | 20000 |
| 2026-04-23 19:15 | 3.71 | 7040 | 48300 (1984) | 3420 (1967) | 9510 | 3840 | 3970 | 4830 | 5430 | 8610 | 11100 | 11800 | 16400 | 20000 |
| 2026-04-23 18:15 | 3.72 | 7090 | 48300 (1984) | 3420 (1967) | 9510 | 3840 | 3970 | 4830 | 5430 | 8610 | 11100 | 11800 | 16400 | 20000 |
| 2026-04-23 17:15 | 3.69 | 6940 | 48300 (1984) | 3420 (1967) | 9510 | 3840 | 3970 | 4830 | 5430 | 8610 | 11100 | 11800 | 16400 | 20000 |
| 2026-04-23 16:15 | 3.71 | 7040 | 48300 (1984) | 3420 (1967) | 9510 | 3840 | 3970 | 4830 | 5430 | 8610 | 11100 | 11800 | 16400 | 20000 |
| 2026-04-23 15:15 | 3.64 | 6690 | 48300 (1984) | 3420 (1967) | 9510 | 3840 | 3970 | 4830 | 5430 | 8610 | 11100 | 11800 | 16400 | 20000 |
| 2026-04-23 14:15 | 3.58 | 6400 | 48300 (1984) | 3420 (1967) | 9510 | 3840 | 3970 | 4830 | 5430 | 8610 | 11100 | 11800 | 16400 | 20000 |
| 2026-04-23 13:15 | 3.46 | 5840 | 48300 (1984) | 3420 (1967) | 9510 | 3840 | 3970 | 4830 | 5430 | 8610 | 11100 | 11800 | 16400 | 20000 |
| 2026-04-23 12:15 | 3.26 | 4990 | 48300 (1984) | 3420 (1967) | 9510 | 3840 | 3970 | 4830 | 5430 | 8610 | 11100 | 11800 | 16400 | 20000 |
| 2026-04-23 11:15 | 3.15 | 4550 | 48300 (1984) | 3420 (1967) | 9510 | 3840 | 3970 | 4830 | 5430 | 8610 | 11100 | 11800 | 16400 | 20000 |
| 2026-04-23 10:15 | 3.03 | 4110 | 48300 (1984) | 3420 (1967) | 9510 | 3840 | 3970 | 4830 | 5430 | 8610 | 11100 | 11800 | 16400 | 20000 |
| 2026-04-23 09:15 | 2.99 | 3970 | 48300 (1984) | 3420 (1967) | 9510 | 3840 | 3970 | 4830 | 5430 | 8610 | 11100 | 11800 | 16400 | 20000 |
| 2026-04-23 08:15 | 2.96 | 3860 | 48300 (1984) | 3420 (1967) | 9510 | 3840 | 3970 | 4830 | 5430 | 8610 | 11100 | 11800 | 16400 | 20000 |
| 2026-04-23 07:15 | 2.97 | 3900 | 48300 (1984) | 3420 (1967) | 9510 | 3840 | 3970 | 4830 | 5430 | 8610 | 11100 | 11800 | 16400 | 20000 |
| 2026-04-23 06:15 | 2.98 | 3930 | 48300 (1984) | 3420 (1967) | 9510 | 3840 | 3970 | 4830 | 5430 | 8610 | 11100 | 11800 | 16400 | 20000 |
| 2026-04-23 05:15 | 3.00 | 4000 | 48300 (1984) | 3420 (1967) | 9510 | 3840 | 3970 | 4830 | 5430 | 8610 | 11100 | 11800 | 16400 | 20000 |
| 2026-04-23 04:15 | 3.05 | 4180 | 48300 (1984) | 3420 (1967) | 9510 | 3840 | 3970 | 4830 | 5430 | 8610 | 11100 | 11800 | 16400 | 20000 |
| 2026-04-23 03:15 | 3.08 | 4290 | 48300 (1984) | 3420 (1967) | 9510 | 3840 | 3970 | 4830 | 5430 | 8610 | 11100 | 11800 | 16400 | 20000 |
| 2026-04-23 02:15 | 3.10 | 4370 | 48300 (1984) | 3420 (1967) | 9510 | 3840 | 3970 | 4830 | 5430 | 8610 | 11100 | 11800 | 16400 | 20000 |
| 2026-04-23 01:15 | 3.12 | 4440 | 48300 (1984) | 3420 (1967) | 9510 | 3840 | 3970 | 4830 | 5430 | 8610 | 11100 | 11800 | 16400 | 20000 |
| 2026-04-23 00:15 | 3.13 | 4480 | 48300 (1984) | 3420 (1967) | 9510 | 3840 | 3970 | 4830 | 5430 | 8610 | 11100 | 11800 | 16400 | 20000 |
| 2026-04-22 23:15 | 3.13 | 4480 | 48300 (1984) | 3420 (1967) | 9510 | 3840 | 3970 | 4830 | 5430 | 8610 | 11100 | 11800 | 16400 | 20000 |
| 2026-04-22 22:15 | 3.13 | 4480 | 39300 (1984) | 3210 (1967) | 9530 | 3620 | 3930 | 5210 | 5600 | 8190 | 11200 | 11900 | 17600 | 23000 |
| 2026-04-22 21:15 | 3.12 | 4440 | 39300 (1984) | 3210 (1967) | 9530 | 3620 | 3930 | 5210 | 5600 | 8190 | 11200 | 11900 | 17600 | 23000 |
| 2026-04-22 20:15 | 3.07 | 4260 | 39300 (1984) | 3210 (1967) | 9530 | 3620 | 3930 | 5210 | 5600 | 8190 | 11200 | 11900 | 17600 | 23000 |
| 2026-04-22 19:15 | 3.06 | 4220 | 39300 (1984) | 3210 (1967) | 9530 | 3620 | 3930 | 5210 | 5600 | 8190 | 11200 | 11900 | 17600 | 23000 |
| 2026-04-22 18:15 | 3.02 | 4070 | 39300 (1984) | 3210 (1967) | 9530 | 3620 | 3930 | 5210 | 5600 | 8190 | 11200 | 11900 | 17600 | 23000 |
| 2026-04-22 17:15 | 3.02 | 4070 | 39300 (1984) | 3210 (1967) | 9530 | 3620 | 3930 | 5210 | 5600 | 8190 | 11200 | 11900 | 17600 | 23000 |
| 2026-04-22 16:15 | 2.98 | 3930 | 39300 (1984) | 3210 (1967) | 9530 | 3620 | 3930 | 5210 | 5600 | 8190 | 11200 | 11900 | 17600 | 23000 |
| 2026-04-22 15:15 | 2.98 | 3930 | 39300 (1984) | 3210 (1967) | 9530 | 3620 | 3930 | 5210 | 5600 | 8190 | 11200 | 11900 | 17600 | 23000 |
| 2026-04-22 14:15 | 2.99 | 3970 | 39300 (1984) | 3210 (1967) | 9530 | 3620 | 3930 | 5210 | 5600 | 8190 | 11200 | 11900 | 17600 | 23000 |
| 2026-04-22 13:15 | 2.96 | 3860 | 39300 (1984) | 3210 (1967) | 9530 | 3620 | 3930 | 5210 | 5600 | 8190 | 11200 | 11900 | 17600 | 23000 |
| 2026-04-22 12:15 | 2.95 | 3830 | 39300 (1984) | 3210 (1967) | 9530 | 3620 | 3930 | 5210 | 5600 | 8190 | 11200 | 11900 | 17600 | 23000 |
| 2026-04-22 11:15 | 2.96 | 3860 | 39300 (1984) | 3210 (1967) | 9530 | 3620 | 3930 | 5210 | 5600 | 8190 | 11200 | 11900 | 17600 | 23000 |
| 2026-04-22 10:15 | 2.98 | 3930 | 39300 (1984) | 3210 (1967) | 9530 | 3620 | 3930 | 5210 | 5600 | 8190 | 11200 | 11900 | 17600 | 23000 |
| 2026-04-22 09:15 | 2.99 | 3970 | 39300 (1984) | 3210 (1967) | 9530 | 3620 | 3930 | 5210 | 5600 | 8190 | 11200 | 11900 | 17600 | 23000 |
| 2026-04-22 08:15 | 3.00 | 4000 | 39300 (1984) | 3210 (1967) | 9530 | 3620 | 3930 | 5210 | 5600 | 8190 | 11200 | 11900 | 17600 | 23000 |
| 2026-04-22 07:15 | 3.07 | 4260 | 39300 (1984) | 3210 (1967) | 9530 | 3620 | 3930 | 5210 | 5600 | 8190 | 11200 | 11900 | 17600 | 23000 |
| 2026-04-22 06:15 | 3.12 | 4440 | 39300 (1984) | 3210 (1967) | 9530 | 3620 | 3930 | 5210 | 5600 | 8190 | 11200 | 11900 | 17600 | 23000 |
| 2026-04-22 05:15 | 3.12 | 4440 | 39300 (1984) | 3210 (1967) | 9530 | 3620 | 3930 | 5210 | 5600 | 8190 | 11200 | 11900 | 17600 | 23000 |
| 2026-04-22 04:15 | 3.20 | 4750 | 39300 (1984) | 3210 (1967) | 9530 | 3620 | 3930 | 5210 | 5600 | 8190 | 11200 | 11900 | 17600 | 23000 |
| 2026-04-22 03:15 | 3.25 | 4950 | 39300 (1984) | 3210 (1967) | 9530 | 3620 | 3930 | 5210 | 5600 | 8190 | 11200 | 11900 | 17600 | 23000 |
| 2026-04-22 02:15 | 3.30 | 5150 | 39300 (1984) | 3210 (1967) | 9530 | 3620 | 3930 | 5210 | 5600 | 8190 | 11200 | 11900 | 17600 | 23000 |
| 2026-04-22 01:15 | 3.36 | 5410 | 39300 (1984) | 3210 (1967) | 9530 | 3620 | 3930 | 5210 | 5600 | 8190 | 11200 | 11900 | 17600 | 23000 |
| 2026-04-22 00:15 | 3.40 | 5580 | 39300 (1984) | 3210 (1967) | 9530 | 3620 | 3930 | 5210 | 5600 | 8190 | 11200 | 11900 | 17600 | 23000 |
| 2026-04-21 23:15 | 3.45 | 5800 | 39300 (1984) | 3210 (1967) | 9530 | 3620 | 3930 | 5210 | 5600 | 8190 | 11200 | 11900 | 17600 | 23000 |
| 2026-04-21 22:15 | 3.51 | 6070 | 36800 (1993) | 2710 (1981) | 9660 | 3700 | 4170 | 5140 | 5540 | 7760 | 11800 | 12300 | 17200 | 22400 |
| 2026-04-21 21:15 | 3.53 | 6160 | 36800 (1993) | 2710 (1981) | 9660 | 3700 | 4170 | 5140 | 5540 | 7760 | 11800 | 12300 | 17200 | 22400 |
| 2026-04-21 20:15 | 3.57 | 6350 | 36800 (1993) | 2710 (1981) | 9660 | 3700 | 4170 | 5140 | 5540 | 7760 | 11800 | 12300 | 17200 | 22400 |
| 2026-04-21 19:15 | 3.58 | 6400 | 36800 (1993) | 2710 (1981) | 9660 | 3700 | 4170 | 5140 | 5540 | 7760 | 11800 | 12300 | 17200 | 22400 |
| 2026-04-21 18:15 | 3.58 | 6400 | 36800 (1993) | 2710 (1981) | 9660 | 3700 | 4170 | 5140 | 5540 | 7760 | 11800 | 12300 | 17200 | 22400 |
| 2026-04-21 17:15 | 3.58 | 6400 | 36800 (1993) | 2710 (1981) | 9660 | 3700 | 4170 | 5140 | 5540 | 7760 | 11800 | 12300 | 17200 | 22400 |
| 2026-04-21 16:15 | 3.51 | 6070 | 36800 (1993) | 2710 (1981) | 9660 | 3700 | 4170 | 5140 | 5540 | 7760 | 11800 | 12300 | 17200 | 22400 |
| 2026-04-21 15:15 | 3.39 | 5530 | 36800 (1993) | 2710 (1981) | 9660 | 3700 | 4170 | 5140 | 5540 | 7760 | 11800 | 12300 | 17200 | 22400 |
| 2026-04-21 14:15 | 3.36 | 5410 | 36800 (1993) | 2710 (1981) | 9660 | 3700 | 4170 | 5140 | 5540 | 7760 | 11800 | 12300 | 17200 | 22400 |
| 2026-04-21 13:15 | 3.24 | 4910 | 36800 (1993) | 2710 (1981) | 9660 | 3700 | 4170 | 5140 | 5540 | 7760 | 11800 | 12300 | 17200 | 22400 |
| 2026-04-21 12:15 | 3.17 | 4630 | 36800 (1993) | 2710 (1981) | 9660 | 3700 | 4170 | 5140 | 5540 | 7760 | 11800 | 12300 | 17200 | 22400 |
| 2026-04-21 11:15 | 3.11 | 4400 | 36800 (1993) | 2710 (1981) | 9660 | 3700 | 4170 | 5140 | 5540 | 7760 | 11800 | 12300 | 17200 | 22400 |
| 2026-04-21 10:15 | 3.06 | 4220 | 36800 (1993) | 2710 (1981) | 9660 | 3700 | 4170 | 5140 | 5540 | 7760 | 11800 | 12300 | 17200 | 22400 |
| 2026-04-21 09:15 | 3.09 | 4330 | 36800 (1993) | 2710 (1981) | 9660 | 3700 | 4170 | 5140 | 5540 | 7760 | 11800 | 12300 | 17200 | 22400 |
| 2026-04-21 08:15 | 3.09 | 4330 | 36800 (1993) | 2710 (1981) | 9660 | 3700 | 4170 | 5140 | 5540 | 7760 | 11800 | 12300 | 17200 | 22400 |
| 2026-04-21 07:15 | 3.10 | 4370 | 36800 (1993) | 2710 (1981) | 9660 | 3700 | 4170 | 5140 | 5540 | 7760 | 11800 | 12300 | 17200 | 22400 |
| 2026-04-21 06:15 | 3.11 | 4400 | 36800 (1993) | 2710 (1981) | 9660 | 3700 | 4170 | 5140 | 5540 | 7760 | 11800 | 12300 | 17200 | 22400 |
| 2026-04-21 05:15 | 3.16 | 4590 | 36800 (1993) | 2710 (1981) | 9660 | 3700 | 4170 | 5140 | 5540 | 7760 | 11800 | 12300 | 17200 | 22400 |
| 2026-04-21 04:15 | 3.20 | 4750 | 36800 (1993) | 2710 (1981) | 9660 | 3700 | 4170 | 5140 | 5540 | 7760 | 11800 | 12300 | 17200 | 22400 |
| 2026-04-21 03:15 | 3.22 | 4830 | 36800 (1993) | 2710 (1981) | 9660 | 3700 | 4170 | 5140 | 5540 | 7760 | 11800 | 12300 | 17200 | 22400 |
| 2026-04-21 02:15 | 3.28 | 5070 | 36800 (1993) | 2710 (1981) | 9660 | 3700 | 4170 | 5140 | 5540 | 7760 | 11800 | 12300 | 17200 | 22400 |
| 2026-04-21 01:15 | 3.31 | 5190 | 36800 (1993) | 2710 (1981) | 9660 | 3700 | 4170 | 5140 | 5540 | 7760 | 11800 | 12300 | 17200 | 22400 |
| 2026-04-21 00:15 | 3.29 | 5110 | 36800 (1993) | 2710 (1981) | 9660 | 3700 | 4170 | 5140 | 5540 | 7760 | 11800 | 12300 | 17200 | 22400 |
| 2026-04-20 23:15 | 3.35 | 5360 | 36800 (1993) | 2710 (1981) | 9660 | 3700 | 4170 | 5140 | 5540 | 7760 | 11800 | 12300 | 17200 | 22400 |
| 2026-04-20 22:15 | 3.32 | 5240 | 26100 (1993) | 2950 (1981) | 9350 | 3650 | 4130 | 5310 | 5490 | 7100 | 12100 | 12900 | 19100 | 19600 |
| 2026-04-20 21:15 | 3.35 | 5360 | 26100 (1993) | 2950 (1981) | 9350 | 3650 | 4130 | 5310 | 5490 | 7100 | 12100 | 12900 | 19100 | 19600 |
| 2026-04-20 20:15 | 3.37 | 5450 | 26100 (1993) | 2950 (1981) | 9350 | 3650 | 4130 | 5310 | 5490 | 7100 | 12100 | 12900 | 19100 | 19600 |
| 2026-04-20 19:15 | 3.39 | 5530 | 26100 (1993) | 2950 (1981) | 9350 | 3650 | 4130 | 5310 | 5490 | 7100 | 12100 | 12900 | 19100 | 19600 |
| 2026-04-20 18:15 | 3.40 | 5580 | 26100 (1993) | 2950 (1981) | 9350 | 3650 | 4130 | 5310 | 5490 | 7100 | 12100 | 12900 | 19100 | 19600 |
| 2026-04-20 17:15 | 3.40 | 5580 | 26100 (1993) | 2950 (1981) | 9350 | 3650 | 4130 | 5310 | 5490 | 7100 | 12100 | 12900 | 19100 | 19600 |
| 2026-04-20 16:15 | 3.41 | 5620 | 26100 (1993) | 2950 (1981) | 9350 | 3650 | 4130 | 5310 | 5490 | 7100 | 12100 | 12900 | 19100 | 19600 |
| 2026-04-20 15:15 | 3.35 | 5360 | 26100 (1993) | 2950 (1981) | 9350 | 3650 | 4130 | 5310 | 5490 | 7100 | 12100 | 12900 | 19100 | 19600 |
| 2026-04-20 14:15 | 3.39 | 5530 | 26100 (1993) | 2950 (1981) | 9350 | 3650 | 4130 | 5310 | 5490 | 7100 | 12100 | 12900 | 19100 | 19600 |
| 2026-04-20 13:15 | 3.33 | 5280 | 26100 (1993) | 2950 (1981) | 9350 | 3650 | 4130 | 5310 | 5490 | 7100 | 12100 | 12900 | 19100 | 19600 |
| 2026-04-20 12:15 | 3.28 | 5070 | 26100 (1993) | 2950 (1981) | 9350 | 3650 | 4130 | 5310 | 5490 | 7100 | 12100 | 12900 | 19100 | 19600 |
| 2026-04-20 11:15 | 3.27 | 5030 | 26100 (1993) | 2950 (1981) | 9350 | 3650 | 4130 | 5310 | 5490 | 7100 | 12100 | 12900 | 19100 | 19600 |
| 2026-04-20 10:15 | 3.24 | 4910 | 26100 (1993) | 2950 (1981) | 9350 | 3650 | 4130 | 5310 | 5490 | 7100 | 12100 | 12900 | 19100 | 19600 |
| 2026-04-20 09:15 | 3.22 | 4830 | 26100 (1993) | 2950 (1981) | 9350 | 3650 | 4130 | 5310 | 5490 | 7100 | 12100 | 12900 | 19100 | 19600 |
| 2026-04-20 08:15 | 3.18 | 4670 | 26100 (1993) | 2950 (1981) | 9350 | 3650 | 4130 | 5310 | 5490 | 7100 | 12100 | 12900 | 19100 | 19600 |
| 2026-04-20 07:15 | 3.17 | 4630 | 26100 (1993) | 2950 (1981) | 9350 | 3650 | 4130 | 5310 | 5490 | 7100 | 12100 | 12900 | 19100 | 19600 |
| 2026-04-20 06:15 | 3.11 | 4400 | 26100 (1993) | 2950 (1981) | 9350 | 3650 | 4130 | 5310 | 5490 | 7100 | 12100 | 12900 | 19100 | 19600 |
| 2026-04-20 05:15 | 3.11 | 4400 | 26100 (1993) | 2950 (1981) | 9350 | 3650 | 4130 | 5310 | 5490 | 7100 | 12100 | 12900 | 19100 | 19600 |
| 2026-04-20 04:15 | 3.13 | 4480 | 26100 (1993) | 2950 (1981) | 9350 | 3650 | 4130 | 5310 | 5490 | 7100 | 12100 | 12900 | 19100 | 19600 |
| 2026-04-20 03:15 | 3.14 | 4520 | 26100 (1993) | 2950 (1981) | 9350 | 3650 | 4130 | 5310 | 5490 | 7100 | 12100 | 12900 | 19100 | 19600 |
| 2026-04-20 02:15 | 3.09 | 4330 | 26100 (1993) | 2950 (1981) | 9350 | 3650 | 4130 | 5310 | 5490 | 7100 | 12100 | 12900 | 19100 | 19600 |
| 2026-04-20 01:15 | 3.10 | 4370 | 26100 (1993) | 2950 (1981) | 9350 | 3650 | 4130 | 5310 | 5490 | 7100 | 12100 | 12900 | 19100 | 19600 |
| 2026-04-20 00:15 | 3.08 | 4290 | 26100 (1993) | 2950 (1981) | 9350 | 3650 | 4130 | 5310 | 5490 | 7100 | 12100 | 12900 | 19100 | 19600 |
| 2026-04-19 23:15 | 3.04 | 4150 | 26100 (1993) | 2950 (1981) | 9350 | 3650 | 4130 | 5310 | 5490 | 7100 | 12100 | 12900 | 19100 | 19600 |
| 2026-04-19 22:15 | 3.03 | 4110 | 22700 (1984) | 2950 (1981) | 9230 | 3820 | 4240 | 5340 | 5500 | 6790 | 12100 | 13000 | 18400 | 20400 |
| 2026-04-19 21:15 | 3.00 | 4000 | 22700 (1984) | 2950 (1981) | 9230 | 3820 | 4240 | 5340 | 5500 | 6790 | 12100 | 13000 | 18400 | 20400 |
| 2026-04-19 20:15 | 2.97 | 3900 | 22700 (1984) | 2950 (1981) | 9230 | 3820 | 4240 | 5340 | 5500 | 6790 | 12100 | 13000 | 18400 | 20400 |
| 2026-04-19 19:15 | 2.93 | 3760 | 22700 (1984) | 2950 (1981) | 9230 | 3820 | 4240 | 5340 | 5500 | 6790 | 12100 | 13000 | 18400 | 20400 |
| 2026-04-19 18:15 | 2.89 | 3630 | 22700 (1984) | 2950 (1981) | 9230 | 3820 | 4240 | 5340 | 5500 | 6790 | 12100 | 13000 | 18400 | 20400 |
| 2026-04-19 17:15 | 2.87 | 3560 | 22700 (1984) | 2950 (1981) | 9230 | 3820 | 4240 | 5340 | 5500 | 6790 | 12100 | 13000 | 18400 | 20400 |
| 2026-04-19 16:15 | 2.86 | 3530 | 22700 (1984) | 2950 (1981) | 9230 | 3820 | 4240 | 5340 | 5500 | 6790 | 12100 | 13000 | 18400 | 20400 |
| 2026-04-19 15:15 | 2.86 | 3530 | 22700 (1984) | 2950 (1981) | 9230 | 3820 | 4240 | 5340 | 5500 | 6790 | 12100 | 13000 | 18400 | 20400 |
| 2026-04-19 14:15 | 2.85 | 3500 | 22700 (1984) | 2950 (1981) | 9230 | 3820 | 4240 | 5340 | 5500 | 6790 | 12100 | 13000 | 18400 | 20400 |
| 2026-04-19 13:15 | 2.87 | 3560 | 22700 (1984) | 2950 (1981) | 9230 | 3820 | 4240 | 5340 | 5500 | 6790 | 12100 | 13000 | 18400 | 20400 |
| 2026-04-19 12:15 | 2.87 | 3560 | 22700 (1984) | 2950 (1981) | 9230 | 3820 | 4240 | 5340 | 5500 | 6790 | 12100 | 13000 | 18400 | 20400 |
| 2026-04-19 11:15 | 2.87 | 3560 | 22700 (1984) | 2950 (1981) | 9230 | 3820 | 4240 | 5340 | 5500 | 6790 | 12100 | 13000 | 18400 | 20400 |
| 2026-04-19 10:15 | 2.87 | 3560 | 22700 (1984) | 2950 (1981) | 9230 | 3820 | 4240 | 5340 | 5500 | 6790 | 12100 | 13000 | 18400 | 20400 |
| 2026-04-19 09:15 | 2.88 | 3600 | 22700 (1984) | 2950 (1981) | 9230 | 3820 | 4240 | 5340 | 5500 | 6790 | 12100 | 13000 | 18400 | 20400 |
| 2026-04-19 08:15 | 2.90 | 3660 | 22700 (1984) | 2950 (1981) | 9230 | 3820 | 4240 | 5340 | 5500 | 6790 | 12100 | 13000 | 18400 | 20400 |
| 2026-04-19 07:15 | 2.95 | 3830 | 22700 (1984) | 2950 (1981) | 9230 | 3820 | 4240 | 5340 | 5500 | 6790 | 12100 | 13000 | 18400 | 20400 |
| 2026-04-19 06:15 | 2.98 | 3930 | 22700 (1984) | 2950 (1981) | 9230 | 3820 | 4240 | 5340 | 5500 | 6790 | 12100 | 13000 | 18400 | 20400 |
| 2026-04-19 05:15 | 3.00 | 4000 | 22700 (1984) | 2950 (1981) | 9230 | 3820 | 4240 | 5340 | 5500 | 6790 | 12100 | 13000 | 18400 | 20400 |
| 2026-04-19 04:15 | 3.04 | 4150 | 22700 (1984) | 2950 (1981) | 9230 | 3820 | 4240 | 5340 | 5500 | 6790 | 12100 | 13000 | 18400 | 20400 |
| 2026-04-19 03:15 | 3.08 | 4290 | 22700 (1984) | 2950 (1981) | 9230 | 3820 | 4240 | 5340 | 5500 | 6790 | 12100 | 13000 | 18400 | 20400 |
| 2026-04-19 02:15 | 3.13 | 4480 | 22700 (1984) | 2950 (1981) | 9230 | 3820 | 4240 | 5340 | 5500 | 6790 | 12100 | 13000 | 18400 | 20400 |
| 2026-04-19 01:15 | 3.19 | 4710 | 22700 (1984) | 2950 (1981) | 9230 | 3820 | 4240 | 5340 | 5500 | 6790 | 12100 | 13000 | 18400 | 20400 |
| 2026-04-19 00:15 | 3.24 | 4910 | 22700 (1984) | 2950 (1981) | 9230 | 3820 | 4240 | 5340 | 5500 | 6790 | 12100 | 13000 | 18400 | 20400 |
| 2026-04-18 23:15 | 3.25 | 4950 | 22700 (1984) | 2950 (1981) | 9230 | 3820 | 4240 | 5340 | 5500 | 6790 | 12100 | 13000 | 18400 | 20400 |
| 2026-04-18 22:15 | 3.31 | 5190 | 27200 (1978) | 3390 (1981) | 9500 | 3880 | 4470 | 5500 | 5820 | 6960 | 12300 | 13200 | 18300 | 22700 |
| 2026-04-18 21:15 | 3.33 | 5280 | 27200 (1978) | 3390 (1981) | 9500 | 3880 | 4470 | 5500 | 5820 | 6960 | 12300 | 13200 | 18300 | 22700 |
| 2026-04-18 20:15 | 3.37 | 5450 | 27200 (1978) | 3390 (1981) | 9500 | 3880 | 4470 | 5500 | 5820 | 6960 | 12300 | 13200 | 18300 | 22700 |
| 2026-04-18 19:15 | 3.35 | 5360 | 27200 (1978) | 3390 (1981) | 9500 | 3880 | 4470 | 5500 | 5820 | 6960 | 12300 | 13200 | 18300 | 22700 |
| 2026-04-18 18:15 | 3.34 | 5320 | 27200 (1978) | 3390 (1981) | 9500 | 3880 | 4470 | 5500 | 5820 | 6960 | 12300 | 13200 | 18300 | 22700 |
| 2026-04-18 17:15 | 3.35 | 5360 | 27200 (1978) | 3390 (1981) | 9500 | 3880 | 4470 | 5500 | 5820 | 6960 | 12300 | 13200 | 18300 | 22700 |
| 2026-04-18 16:15 | 3.30 | 5150 | 27200 (1978) | 3390 (1981) | 9500 | 3880 | 4470 | 5500 | 5820 | 6960 | 12300 | 13200 | 18300 | 22700 |
| 2026-04-18 15:15 | 3.24 | 4910 | 27200 (1978) | 3390 (1981) | 9500 | 3880 | 4470 | 5500 | 5820 | 6960 | 12300 | 13200 | 18300 | 22700 |
| 2026-04-18 14:15 | 3.20 | 4750 | 27200 (1978) | 3390 (1981) | 9500 | 3880 | 4470 | 5500 | 5820 | 6960 | 12300 | 13200 | 18300 | 22700 |
| 2026-04-18 13:15 | 3.13 | 4480 | 27200 (1978) | 3390 (1981) | 9500 | 3880 | 4470 | 5500 | 5820 | 6960 | 12300 | 13200 | 18300 | 22700 |
| 2026-04-18 12:15 | 3.10 | 4370 | 27200 (1978) | 3390 (1981) | 9500 | 3880 | 4470 | 5500 | 5820 | 6960 | 12300 | 13200 | 18300 | 22700 |
| 2026-04-18 11:15 | 3.07 | 4260 | 27200 (1978) | 3390 (1981) | 9500 | 3880 | 4470 | 5500 | 5820 | 6960 | 12300 | 13200 | 18300 | 22700 |
| 2026-04-18 10:15 | 3.04 | 4150 | 27200 (1978) | 3390 (1981) | 9500 | 3880 | 4470 | 5500 | 5820 | 6960 | 12300 | 13200 | 18300 | 22700 |
| 2026-04-18 09:15 | 3.02 | 4070 | 27200 (1978) | 3390 (1981) | 9500 | 3880 | 4470 | 5500 | 5820 | 6960 | 12300 | 13200 | 18300 | 22700 |
| 2026-04-18 08:15 | 3.03 | 4110 | 27200 (1978) | 3390 (1981) | 9500 | 3880 | 4470 | 5500 | 5820 | 6960 | 12300 | 13200 | 18300 | 22700 |
| 2026-04-18 07:15 | 3.07 | 4260 | 27200 (1978) | 3390 (1981) | 9500 | 3880 | 4470 | 5500 | 5820 | 6960 | 12300 | 13200 | 18300 | 22700 |
| 2026-04-18 06:15 | 3.11 | 4400 | 27200 (1978) | 3390 (1981) | 9500 | 3880 | 4470 | 5500 | 5820 | 6960 | 12300 | 13200 | 18300 | 22700 |
| 2026-04-18 05:15 | 3.17 | 4630 | 27200 (1978) | 3390 (1981) | 9500 | 3880 | 4470 | 5500 | 5820 | 6960 | 12300 | 13200 | 18300 | 22700 |
| 2026-04-18 04:15 | 3.22 | 4830 | 27200 (1978) | 3390 (1981) | 9500 | 3880 | 4470 | 5500 | 5820 | 6960 | 12300 | 13200 | 18300 | 22700 |
| 2026-04-18 03:15 | 3.28 | 5070 | 27200 (1978) | 3390 (1981) | 9500 | 3880 | 4470 | 5500 | 5820 | 6960 | 12300 | 13200 | 18300 | 22700 |
| 2026-04-18 02:15 | 3.34 | 5320 | 27200 (1978) | 3390 (1981) | 9500 | 3880 | 4470 | 5500 | 5820 | 6960 | 12300 | 13200 | 18300 | 22700 |
| 2026-04-18 01:15 | 3.38 | 5490 | 27200 (1978) | 3390 (1981) | 9500 | 3880 | 4470 | 5500 | 5820 | 6960 | 12300 | 13200 | 18300 | 22700 |
| 2026-04-18 00:15 | 3.43 | 5710 | 27200 (1978) | 3390 (1981) | 9500 | 3880 | 4470 | 5500 | 5820 | 6960 | 12300 | 13200 | 18300 | 22700 |
| 2026-04-17 23:15 | 3.50 | 6030 | 27200 (1978) | 3390 (1981) | 9500 | 3880 | 4470 | 5500 | 5820 | 6960 | 12300 | 13200 | 18300 | 22700 |
| 2026-04-17 22:15 | 3.46 | 5840 | 30200 (1999) | 3010 (1981) | 9530 | 3900 | 4270 | 5380 | 5560 | 7610 | 11900 | 13000 | 18100 | 22900 |
| 2026-04-17 21:15 | 3.50 | 6030 | 30200 (1999) | 3010 (1981) | 9530 | 3900 | 4270 | 5380 | 5560 | 7610 | 11900 | 13000 | 18100 | 22900 |
| 2026-04-17 20:15 | 3.45 | 5800 | 30200 (1999) | 3010 (1981) | 9530 | 3900 | 4270 | 5380 | 5560 | 7610 | 11900 | 13000 | 18100 | 22900 |
| 2026-04-17 19:15 | 3.41 | 5620 | 30200 (1999) | 3010 (1981) | 9530 | 3900 | 4270 | 5380 | 5560 | 7610 | 11900 | 13000 | 18100 | 22900 |
| 2026-04-17 18:15 | 3.33 | 5280 | 30200 (1999) | 3010 (1981) | 9530 | 3900 | 4270 | 5380 | 5560 | 7610 | 11900 | 13000 | 18100 | 22900 |
| 2026-04-17 17:15 | 3.25 | 4950 | 30200 (1999) | 3010 (1981) | 9530 | 3900 | 4270 | 5380 | 5560 | 7610 | 11900 | 13000 | 18100 | 22900 |
| 2026-04-17 16:15 | 3.18 | 4670 | 30200 (1999) | 3010 (1981) | 9530 | 3900 | 4270 | 5380 | 5560 | 7610 | 11900 | 13000 | 18100 | 22900 |
| 2026-04-17 15:15 | 3.13 | 4480 | 30200 (1999) | 3010 (1981) | 9530 | 3900 | 4270 | 5380 | 5560 | 7610 | 11900 | 13000 | 18100 | 22900 |
| 2026-04-17 14:15 | 3.08 | 4290 | 30200 (1999) | 3010 (1981) | 9530 | 3900 | 4270 | 5380 | 5560 | 7610 | 11900 | 13000 | 18100 | 22900 |
| 2026-04-17 13:15 | 3.02 | 4070 | 30200 (1999) | 3010 (1981) | 9530 | 3900 | 4270 | 5380 | 5560 | 7610 | 11900 | 13000 | 18100 | 22900 |
| 2026-04-17 12:15 | 3.03 | 4110 | 30200 (1999) | 3010 (1981) | 9530 | 3900 | 4270 | 5380 | 5560 | 7610 | 11900 | 13000 | 18100 | 22900 |
| 2026-04-17 11:15 | 3.06 | 4220 | 30200 (1999) | 3010 (1981) | 9530 | 3900 | 4270 | 5380 | 5560 | 7610 | 11900 | 13000 | 18100 | 22900 |
| 2026-04-17 10:15 | 3.04 | 4150 | 30200 (1999) | 3010 (1981) | 9530 | 3900 | 4270 | 5380 | 5560 | 7610 | 11900 | 13000 | 18100 | 22900 |
| 2026-04-17 09:15 | 3.04 | 4150 | 30200 (1999) | 3010 (1981) | 9530 | 3900 | 4270 | 5380 | 5560 | 7610 | 11900 | 13000 | 18100 | 22900 |
| 2026-04-17 08:15 | 3.08 | 4290 | 30200 (1999) | 3010 (1981) | 9530 | 3900 | 4270 | 5380 | 5560 | 7610 | 11900 | 13000 | 18100 | 22900 |
| 2026-04-17 07:15 | 3.10 | 4370 | 30200 (1999) | 3010 (1981) | 9530 | 3900 | 4270 | 5380 | 5560 | 7610 | 11900 | 13000 | 18100 | 22900 |
| 2026-04-17 06:15 | 3.16 | 4590 | 30200 (1999) | 3010 (1981) | 9530 | 3900 | 4270 | 5380 | 5560 | 7610 | 11900 | 13000 | 18100 | 22900 |
| 2026-04-17 05:15 | 3.17 | 4630 | 30200 (1999) | 3010 (1981) | 9530 | 3900 | 4270 | 5380 | 5560 | 7610 | 11900 | 13000 | 18100 | 22900 |
| 2026-04-17 04:15 | 3.24 | 4910 | 30200 (1999) | 3010 (1981) | 9530 | 3900 | 4270 | 5380 | 5560 | 7610 | 11900 | 13000 | 18100 | 22900 |
| 2026-04-17 03:15 | 3.29 | 5110 | 30200 (1999) | 3010 (1981) | 9530 | 3900 | 4270 | 5380 | 5560 | 7610 | 11900 | 13000 | 18100 | 22900 |
| 2026-04-17 02:15 | 3.34 | 5320 | 30200 (1999) | 3010 (1981) | 9530 | 3900 | 4270 | 5380 | 5560 | 7610 | 11900 | 13000 | 18100 | 22900 |
| 2026-04-17 01:15 | 3.40 | 5580 | 30200 (1999) | 3010 (1981) | 9530 | 3900 | 4270 | 5380 | 5560 | 7610 | 11900 | 13000 | 18100 | 22900 |
| 2026-04-17 00:15 | 3.45 | 5800 | 30200 (1999) | 3010 (1981) | 9530 | 3900 | 4270 | 5380 | 5560 | 7610 | 11900 | 13000 | 18100 | 22900 |
| 2026-04-16 23:15 | 3.50 | 6030 | 30200 (1999) | 3010 (1981) | 9530 | 3900 | 4270 | 5380 | 5560 | 7610 | 11900 | 13000 | 18100 | 22900 |
| 2026-04-16 22:15 | 3.52 | 6120 | 41200 (1999) | 3020 (1981) | 9750 | 4110 | 4350 | 5280 | 5670 | 7540 | 11600 | 12900 | 16400 | 25000 |
| 2026-04-16 21:15 | 3.60 | 6500 | 41200 (1999) | 3020 (1981) | 9750 | 4110 | 4350 | 5280 | 5670 | 7540 | 11600 | 12900 | 16400 | 25000 |
| 2026-04-16 20:15 | 3.58 | 6400 | 41200 (1999) | 3020 (1981) | 9750 | 4110 | 4350 | 5280 | 5670 | 7540 | 11600 | 12900 | 16400 | 25000 |
| 2026-04-16 19:15 | 3.66 | 6790 | 41200 (1999) | 3020 (1981) | 9750 | 4110 | 4350 | 5280 | 5670 | 7540 | 11600 | 12900 | 16400 | 25000 |
| 2026-04-16 18:15 | 3.64 | 6690 | 41200 (1999) | 3020 (1981) | 9750 | 4110 | 4350 | 5280 | 5670 | 7540 | 11600 | 12900 | 16400 | 25000 |
| 2026-04-16 17:15 | 3.62 | 6590 | 41200 (1999) | 3020 (1981) | 9750 | 4110 | 4350 | 5280 | 5670 | 7540 | 11600 | 12900 | 16400 | 25000 |
| 2026-04-16 16:15 | 3.56 | 6300 | 41200 (1999) | 3020 (1981) | 9750 | 4110 | 4350 | 5280 | 5670 | 7540 | 11600 | 12900 | 16400 | 25000 |
| 2026-04-16 15:15 | 3.47 | 5890 | 41200 (1999) | 3020 (1981) | 9750 | 4110 | 4350 | 5280 | 5670 | 7540 | 11600 | 12900 | 16400 | 25000 |
| 2026-04-16 14:15 | 3.44 | 5750 | 41200 (1999) | 3020 (1981) | 9750 | 4110 | 4350 | 5280 | 5670 | 7540 | 11600 | 12900 | 16400 | 25000 |
| 2026-04-16 13:15 | 3.36 | 5410 | 41200 (1999) | 3020 (1981) | 9750 | 4110 | 4350 | 5280 | 5670 | 7540 | 11600 | 12900 | 16400 | 25000 |
| 2026-04-16 12:15 | 3.28 | 5190 | 41200 (1999) | 3020 (1981) | 9750 | 4110 | 4350 | 5280 | 5670 | 7540 | 11600 | 12900 | 16400 | 25000 |
| 2026-04-16 11:15 | 3.28 | 5190 | 41200 (1999) | 3020 (1981) | 9750 | 4110 | 4350 | 5280 | 5670 | 7540 | 11600 | 12900 | 16400 | 25000 |
| 2026-04-16 10:15 | 3.21 | 4910 | 41200 (1999) | 3020 (1981) | 9750 | 4110 | 4350 | 5280 | 5670 | 7540 | 11600 | 12900 | 16400 | 25000 |
| 2026-04-16 09:15 | 3.19 | 4830 | 41200 (1999) | 3020 (1981) | 9750 | 4110 | 4350 | 5280 | 5670 | 7540 | 11600 | 12900 | 16400 | 25000 |
| 2026-04-16 08:15 | 3.18 | 4790 | 41200 (1999) | 3020 (1981) | 9750 | 4110 | 4350 | 5280 | 5670 | 7540 | 11600 | 12900 | 16400 | 25000 |
| 2026-04-16 07:15 | 3.21 | 4910 | 41200 (1999) | 3020 (1981) | 9750 | 4110 | 4350 | 5280 | 5670 | 7540 | 11600 | 12900 | 16400 | 25000 |
| 2026-04-16 06:15 | 3.22 | 4950 | 41200 (1999) | 3020 (1981) | 9750 | 4110 | 4350 | 5280 | 5670 | 7540 | 11600 | 12900 | 16400 | 25000 |
| 2026-04-16 05:15 | 3.28 | 5190 | 41200 (1999) | 3020 (1981) | 9750 | 4110 | 4350 | 5280 | 5670 | 7540 | 11600 | 12900 | 16400 | 25000 |
| 2026-04-16 04:15 | 3.31 | 5320 | 41200 (1999) | 3020 (1981) | 9750 | 4110 | 4350 | 5280 | 5670 | 7540 | 11600 | 12900 | 16400 | 25000 |
| 2026-04-16 03:15 | 3.36 | 5530 | 41200 (1999) | 3020 (1981) | 9750 | 4110 | 4350 | 5280 | 5670 | 7540 | 11600 | 12900 | 16400 | 25000 |
| 2026-04-16 02:15 | 3.42 | 5800 | 41200 (1999) | 3020 (1981) | 9750 | 4110 | 4350 | 5280 | 5670 | 7540 | 11600 | 12900 | 16400 | 25000 |
| 2026-04-16 01:15 | 3.45 | 5930 | 41200 (1999) | 3020 (1981) | 9750 | 4110 | 4350 | 5280 | 5670 | 7540 | 11600 | 12900 | 16400 | 25000 |
| 2026-04-16 00:15 | 3.49 | 6120 | 41200 (1999) | 3020 (1981) | 9750 | 4110 | 4350 | 5280 | 5670 | 7540 | 11600 | 12900 | 16400 | 25000 |
| 2026-04-15 23:15 | 3.56 | 6450 | 41200 (1999) | 3020 (1981) | 9750 | 4110 | 4350 | 5280 | 5670 | 7540 | 11600 | 12900 | 16400 | 25000 |
| 2026-04-15 22:15 | 3.64 | 6840 | 39300 (1999) | 3520 (1981) | 9770 | 4200 | 4490 | 5300 | 5640 | 7500 | 11100 | 12600 | 16600 | 25800 |
| 2026-04-15 21:15 | 3.64 | 6840 | 39300 (1999) | 3520 (1981) | 9770 | 4200 | 4490 | 5300 | 5640 | 7500 | 11100 | 12600 | 16600 | 25800 |
| 2026-04-15 20:15 | 3.74 | 7350 | 39300 (1999) | 3520 (1981) | 9770 | 4200 | 4490 | 5300 | 5640 | 7500 | 11100 | 12600 | 16600 | 25800 |
| 2026-04-15 19:15 | 3.74 | 7350 | 39300 (1999) | 3520 (1981) | 9770 | 4200 | 4490 | 5300 | 5640 | 7500 | 11100 | 12600 | 16600 | 25800 |
| 2026-04-15 18:15 | 3.76 | 7450 | 39300 (1999) | 3520 (1981) | 9770 | 4200 | 4490 | 5300 | 5640 | 7500 | 11100 | 12600 | 16600 | 25800 |
| 2026-04-15 17:15 | 3.74 | 7350 | 39300 (1999) | 3520 (1981) | 9770 | 4200 | 4490 | 5300 | 5640 | 7500 | 11100 | 12600 | 16600 | 25800 |
| 2026-04-15 16:15 | 3.71 | 7190 | 39300 (1999) | 3520 (1981) | 9770 | 4200 | 4490 | 5300 | 5640 | 7500 | 11100 | 12600 | 16600 | 25800 |
| 2026-04-15 15:15 | 3.64 | 6840 | 39300 (1999) | 3520 (1981) | 9770 | 4200 | 4490 | 5300 | 5640 | 7500 | 11100 | 12600 | 16600 | 25800 |
| 2026-04-15 14:15 | 3.53 | 6300 | 39300 (1999) | 3520 (1981) | 9770 | 4200 | 4490 | 5300 | 5640 | 7500 | 11100 | 12600 | 16600 | 25800 |
| 2026-04-15 13:15 | 3.46 | 5980 | 39300 (1999) | 3520 (1981) | 9770 | 4200 | 4490 | 5300 | 5640 | 7500 | 11100 | 12600 | 16600 | 25800 |
| 2026-04-15 12:15 | 3.37 | 5580 | 39300 (1999) | 3520 (1981) | 9770 | 4200 | 4490 | 5300 | 5640 | 7500 | 11100 | 12600 | 16600 | 25800 |
| 2026-04-15 11:15 | 3.32 | 5360 | 39300 (1999) | 3520 (1981) | 9770 | 4200 | 4490 | 5300 | 5640 | 7500 | 11100 | 12600 | 16600 | 25800 |
| 2026-04-15 10:15 | 3.28 | 5190 | 39300 (1999) | 3520 (1981) | 9770 | 4200 | 4490 | 5300 | 5640 | 7500 | 11100 | 12600 | 16600 | 25800 |
| 2026-04-15 09:15 | 3.26 | 5110 | 39300 (1999) | 3520 (1981) | 9770 | 4200 | 4490 | 5300 | 5640 | 7500 | 11100 | 12600 | 16600 | 25800 |
| 2026-04-15 08:15 | 3.25 | 5070 | 39300 (1999) | 3520 (1981) | 9770 | 4200 | 4490 | 5300 | 5640 | 7500 | 11100 | 12600 | 16600 | 25800 |
| 2026-04-15 07:15 | 3.27 | 5150 | 39300 (1999) | 3520 (1981) | 9770 | 4200 | 4490 | 5300 | 5640 | 7500 | 11100 | 12600 | 16600 | 25800 |
| 2026-04-15 06:15 | 3.31 | 5320 | 39300 (1999) | 3520 (1981) | 9770 | 4200 | 4490 | 5300 | 5640 | 7500 | 11100 | 12600 | 16600 | 25800 |
| 2026-04-15 05:15 | 3.36 | 5530 | 39300 (1999) | 3520 (1981) | 9770 | 4200 | 4490 | 5300 | 5640 | 7500 | 11100 | 12600 | 16600 | 25800 |
| 2026-04-15 04:15 | 3.39 | 5670 | 39300 (1999) | 3520 (1981) | 9770 | 4200 | 4490 | 5300 | 5640 | 7500 | 11100 | 12600 | 16600 | 25800 |
| 2026-04-15 03:15 | 3.45 | 5930 | 39300 (1999) | 3520 (1981) | 9770 | 4200 | 4490 | 5300 | 5640 | 7500 | 11100 | 12600 | 16600 | 25800 |
| 2026-04-15 02:15 | 3.50 | 6160 | 39300 (1999) | 3520 (1981) | 9770 | 4200 | 4490 | 5300 | 5640 | 7500 | 11100 | 12600 | 16600 | 25800 |
| 2026-04-15 01:15 | 3.57 | 6500 | 39300 (1999) | 3520 (1981) | 9770 | 4200 | 4490 | 5300 | 5640 | 7500 | 11100 | 12600 | 16600 | 25800 |
| 2026-04-15 00:15 | 3.61 | 6690 | 39300 (1999) | 3520 (1981) | 9770 | 4200 | 4490 | 5300 | 5640 | 7500 | 11100 | 12600 | 16600 | 25800 |
| 2026-04-14 23:15 | 3.66 | 6940 | 39300 (1999) | 3520 (1981) | 9770 | 4200 | 4490 | 5300 | 5640 | 7500 | 11100 | 12600 | 16600 | 25800 |
| 2026-04-14 22:15 | 3.68 | 7040 | 41500 (1984) | 3610 (2022) | 9420 | 4180 | 4440 | 5600 | 5910 | 7640 | 10700 | 12300 | 16300 | 21000 |
| 2026-04-14 21:15 | 3.70 | 7140 | 41500 (1984) | 3610 (2022) | 9420 | 4180 | 4440 | 5600 | 5910 | 7640 | 10700 | 12300 | 16300 | 21000 |
| 2026-04-14 20:15 | 3.74 | 7350 | 41500 (1984) | 3610 (2022) | 9420 | 4180 | 4440 | 5600 | 5910 | 7640 | 10700 | 12300 | 16300 | 21000 |
| 2026-04-14 19:15 | 3.75 | 7400 | 41500 (1984) | 3610 (2022) | 9420 | 4180 | 4440 | 5600 | 5910 | 7640 | 10700 | 12300 | 16300 | 21000 |
| 2026-04-14 18:15 | 3.70 | 7140 | 41500 (1984) | 3610 (2022) | 9420 | 4180 | 4440 | 5600 | 5910 | 7640 | 10700 | 12300 | 16300 | 21000 |
| 2026-04-14 17:15 | 3.66 | 6940 | 41500 (1984) | 3610 (2022) | 9420 | 4180 | 4440 | 5600 | 5910 | 7640 | 10700 | 12300 | 16300 | 21000 |
| 2026-04-14 16:15 | 3.61 | 6690 | 41500 (1984) | 3610 (2022) | 9420 | 4180 | 4440 | 5600 | 5910 | 7640 | 10700 | 12300 | 16300 | 21000 |
| 2026-04-14 15:15 | 3.50 | 6160 | 41500 (1984) | 3610 (2022) | 9420 | 4180 | 4440 | 5600 | 5910 | 7640 | 10700 | 12300 | 16300 | 21000 |
| 2026-04-14 14:15 | 3.44 | 5890 | 41500 (1984) | 3610 (2022) | 9420 | 4180 | 4440 | 5600 | 5910 | 7640 | 10700 | 12300 | 16300 | 21000 |
| 2026-04-14 13:15 | 3.33 | 5410 | 41500 (1984) | 3610 (2022) | 9420 | 4180 | 4440 | 5600 | 5910 | 7640 | 10700 | 12300 | 16300 | 21000 |
| 2026-04-14 12:15 | 3.27 | 5150 | 41500 (1984) | 3610 (2022) | 9420 | 4180 | 4440 | 5600 | 5910 | 7640 | 10700 | 12300 | 16300 | 21000 |
| 2026-04-14 11:15 | 3.24 | 5030 | 41500 (1984) | 3610 (2022) | 9420 | 4180 | 4440 | 5600 | 5910 | 7640 | 10700 | 12300 | 16300 | 21000 |
| 2026-04-14 10:15 | 3.17 | 4750 | 41500 (1984) | 3610 (2022) | 9420 | 4180 | 4440 | 5600 | 5910 | 7640 | 10700 | 12300 | 16300 | 21000 |
| 2026-04-14 09:15 | 3.15 | 4670 | 41500 (1984) | 3610 (2022) | 9420 | 4180 | 4440 | 5600 | 5910 | 7640 | 10700 | 12300 | 16300 | 21000 |
| 2026-04-14 08:15 | 3.16 | 4710 | 41500 (1984) | 3610 (2022) | 9420 | 4180 | 4440 | 5600 | 5910 | 7640 | 10700 | 12300 | 16300 | 21000 |
| 2026-04-14 07:15 | 3.18 | 4790 | 41500 (1984) | 3610 (2022) | 9420 | 4180 | 4440 | 5600 | 5910 | 7640 | 10700 | 12300 | 16300 | 21000 |
| 2026-04-14 06:15 | 3.19 | 4830 | 41500 (1984) | 3610 (2022) | 9420 | 4180 | 4440 | 5600 | 5910 | 7640 | 10700 | 12300 | 16300 | 21000 |
| 2026-04-14 05:15 | 3.21 | 4910 | 41500 (1984) | 3610 (2022) | 9420 | 4180 | 4440 | 5600 | 5910 | 7640 | 10700 | 12300 | 16300 | 21000 |
| 2026-04-14 04:15 | 3.24 | 5030 | 41500 (1984) | 3610 (2022) | 9420 | 4180 | 4440 | 5600 | 5910 | 7640 | 10700 | 12300 | 16300 | 21000 |
| 2026-04-14 03:15 | 3.26 | 5110 | 41500 (1984) | 3610 (2022) | 9420 | 4180 | 4440 | 5600 | 5910 | 7640 | 10700 | 12300 | 16300 | 21000 |
| 2026-04-14 02:15 | 3.29 | 5240 | 41500 (1984) | 3610 (2022) | 9420 | 4180 | 4440 | 5600 | 5910 | 7640 | 10700 | 12300 | 16300 | 21000 |
| 2026-04-14 01:15 | 3.31 | 5320 | 41500 (1984) | 3610 (2022) | 9420 | 4180 | 4440 | 5600 | 5910 | 7640 | 10700 | 12300 | 16300 | 21000 |
| 2026-04-14 00:15 | 3.34 | 5450 | 41500 (1984) | 3610 (2022) | 9420 | 4180 | 4440 | 5600 | 5910 | 7640 | 10700 | 12300 | 16300 | 21000 |
| 2026-04-13 23:15 | 3.37 | 5580 | 41500 (1984) | 3610 (2022) | 9420 | 4180 | 4440 | 5600 | 5910 | 7640 | 10700 | 12300 | 16300 | 21000 |
| 2026-04-13 22:15 | 3.38 | 5620 | 47900 (1984) | 2690 (1981) | 9460 | 4020 | 4480 | 5930 | 6070 | 7800 | 10800 | 12400 | 16000 | 19400 |
| 2026-04-13 21:15 | 3.43 | 5840 | 47900 (1984) | 2690 (1981) | 9460 | 4020 | 4480 | 5930 | 6070 | 7800 | 10800 | 12400 | 16000 | 19400 |
| 2026-04-13 20:15 | 3.43 | 5840 | 47900 (1984) | 2690 (1981) | 9460 | 4020 | 4480 | 5930 | 6070 | 7800 | 10800 | 12400 | 16000 | 19400 |
| 2026-04-13 19:15 | 3.46 | 5980 | 47900 (1984) | 2690 (1981) | 9460 | 4020 | 4480 | 5930 | 6070 | 7800 | 10800 | 12400 | 16000 | 19400 |
| 2026-04-13 18:15 | 3.47 | 6030 | 47900 (1984) | 2690 (1981) | 9460 | 4020 | 4480 | 5930 | 6070 | 7800 | 10800 | 12400 | 16000 | 19400 |
| 2026-04-13 17:15 | 3.49 | 6120 | 47900 (1984) | 2690 (1981) | 9460 | 4020 | 4480 | 5930 | 6070 | 7800 | 10800 | 12400 | 16000 | 19400 |
| 2026-04-13 16:15 | 3.52 | 6260 | 47900 (1984) | 2690 (1981) | 9460 | 4020 | 4480 | 5930 | 6070 | 7800 | 10800 | 12400 | 16000 | 19400 |
| 2026-04-13 15:15 | 3.56 | 6450 | 47900 (1984) | 2690 (1981) | 9460 | 4020 | 4480 | 5930 | 6070 | 7800 | 10800 | 12400 | 16000 | 19400 |
| 2026-04-13 14:15 | 3.59 | 6590 | 47900 (1984) | 2690 (1981) | 9460 | 4020 | 4480 | 5930 | 6070 | 7800 | 10800 | 12400 | 16000 | 19400 |
| 2026-04-13 13:15 | 3.64 | 6840 | 47900 (1984) | 2690 (1981) | 9460 | 4020 | 4480 | 5930 | 6070 | 7800 | 10800 | 12400 | 16000 | 19400 |
| 2026-04-13 12:15 | 3.64 | 6840 | 47900 (1984) | 2690 (1981) | 9460 | 4020 | 4480 | 5930 | 6070 | 7800 | 10800 | 12400 | 16000 | 19400 |
| 2026-04-13 11:15 | 3.61 | 6690 | 47900 (1984) | 2690 (1981) | 9460 | 4020 | 4480 | 5930 | 6070 | 7800 | 10800 | 12400 | 16000 | 19400 |
| 2026-04-13 10:15 | 3.66 | 6940 | 47900 (1984) | 2690 (1981) | 9460 | 4020 | 4480 | 5930 | 6070 | 7800 | 10800 | 12400 | 16000 | 19400 |
| 2026-04-13 09:15 | 3.67 | 6990 | 47900 (1984) | 2690 (1981) | 9460 | 4020 | 4480 | 5930 | 6070 | 7800 | 10800 | 12400 | 16000 | 19400 |
| 2026-04-13 08:15 | 3.65 | 6890 | 47900 (1984) | 2690 (1981) | 9460 | 4020 | 4480 | 5930 | 6070 | 7800 | 10800 | 12400 | 16000 | 19400 |
| 2026-04-13 07:15 | 3.64 | 6840 | 47900 (1984) | 2690 (1981) | 9460 | 4020 | 4480 | 5930 | 6070 | 7800 | 10800 | 12400 | 16000 | 19400 |
| 2026-04-13 06:15 | 3.58 | 6540 | 47900 (1984) | 2690 (1981) | 9460 | 4020 | 4480 | 5930 | 6070 | 7800 | 10800 | 12400 | 16000 | 19400 |
| 2026-04-13 05:15 | 3.59 | 6590 | 47900 (1984) | 2690 (1981) | 9460 | 4020 | 4480 | 5930 | 6070 | 7800 | 10800 | 12400 | 16000 | 19400 |
| 2026-04-13 04:15 | 3.56 | 6450 | 47900 (1984) | 2690 (1981) | 9460 | 4020 | 4480 | 5930 | 6070 | 7800 | 10800 | 12400 | 16000 | 19400 |
| 2026-04-13 03:15 | 3.55 | 6400 | 47900 (1984) | 2690 (1981) | 9460 | 4020 | 4480 | 5930 | 6070 | 7800 | 10800 | 12400 | 16000 | 19400 |
| 2026-04-13 02:15 | 3.52 | 6260 | 47900 (1984) | 2690 (1981) | 9460 | 4020 | 4480 | 5930 | 6070 | 7800 | 10800 | 12400 | 16000 | 19400 |
| 2026-04-13 01:15 | 3.56 | 6450 | 47900 (1984) | 2690 (1981) | 9460 | 4020 | 4480 | 5930 | 6070 | 7800 | 10800 | 12400 | 16000 | 19400 |
| 2026-04-13 00:15 | 3.59 | 6590 | 47900 (1984) | 2690 (1981) | 9460 | 4020 | 4480 | 5930 | 6070 | 7800 | 10800 | 12400 | 16000 | 19400 |
| 2026-04-12 23:15 | 3.60 | 6640 | 47900 (1984) | 2690 (1981) | 9460 | 4020 | 4480 | 5930 | 6070 | 7800 | 10800 | 12400 | 16000 | 19400 |
| 2026-04-12 22:15 | 3.60 | 6640 | 42400 (1984) | 2880 (1981) | 9400 | 4240 | 4550 | 5380 | 5840 | 7500 | 11000 | 12300 | 16300 | 19500 |
| 2026-04-12 21:15 | 3.64 | 6840 | 42400 (1984) | 2880 (1981) | 9400 | 4240 | 4550 | 5380 | 5840 | 7500 | 11000 | 12300 | 16300 | 19500 |
| 2026-04-12 20:15 | 3.67 | 6990 | 42400 (1984) | 2880 (1981) | 9400 | 4240 | 4550 | 5380 | 5840 | 7500 | 11000 | 12300 | 16300 | 19500 |
| 2026-04-12 19:15 | 3.71 | 7190 | 42400 (1984) | 2880 (1981) | 9400 | 4240 | 4550 | 5380 | 5840 | 7500 | 11000 | 12300 | 16300 | 19500 |
| 2026-04-12 18:15 | 3.71 | 7190 | 42400 (1984) | 2880 (1981) | 9400 | 4240 | 4550 | 5380 | 5840 | 7500 | 11000 | 12300 | 16300 | 19500 |
| 2026-04-12 17:15 | 3.76 | 7450 | 42400 (1984) | 2880 (1981) | 9400 | 4240 | 4550 | 5380 | 5840 | 7500 | 11000 | 12300 | 16300 | 19500 |
| 2026-04-12 16:15 | 3.76 | 7450 | 42400 (1984) | 2880 (1981) | 9400 | 4240 | 4550 | 5380 | 5840 | 7500 | 11000 | 12300 | 16300 | 19500 |
| 2026-04-12 15:15 | 3.74 | 7350 | 42400 (1984) | 2880 (1981) | 9400 | 4240 | 4550 | 5380 | 5840 | 7500 | 11000 | 12300 | 16300 | 19500 |
| 2026-04-12 14:15 | 3.73 | 7290 | 42400 (1984) | 2880 (1981) | 9400 | 4240 | 4550 | 5380 | 5840 | 7500 | 11000 | 12300 | 16300 | 19500 |
| 2026-04-12 13:15 | 3.73 | 7290 | 42400 (1984) | 2880 (1981) | 9400 | 4240 | 4550 | 5380 | 5840 | 7500 | 11000 | 12300 | 16300 | 19500 |
| 2026-04-12 12:15 | 3.68 | 7040 | 42400 (1984) | 2880 (1981) | 9400 | 4240 | 4550 | 5380 | 5840 | 7500 | 11000 | 12300 | 16300 | 19500 |
| 2026-04-12 11:15 | 3.63 | 6790 | 42400 (1984) | 2880 (1981) | 9400 | 4240 | 4550 | 5380 | 5840 | 7500 | 11000 | 12300 | 16300 | 19500 |
| 2026-04-12 10:15 | 3.56 | 6450 | 42400 (1984) | 2880 (1981) | 9400 | 4240 | 4550 | 5380 | 5840 | 7500 | 11000 | 12300 | 16300 | 19500 |
| 2026-04-12 09:15 | 3.51 | 6210 | 42400 (1984) | 2880 (1981) | 9400 | 4240 | 4550 | 5380 | 5840 | 7500 | 11000 | 12300 | 16300 | 19500 |
| 2026-04-12 08:15 | 3.45 | 5930 | 42400 (1984) | 2880 (1981) | 9400 | 4240 | 4550 | 5380 | 5840 | 7500 | 11000 | 12300 | 16300 | 19500 |
| 2026-04-12 07:15 | 3.37 | 5580 | 42400 (1984) | 2880 (1981) | 9400 | 4240 | 4550 | 5380 | 5840 | 7500 | 11000 | 12300 | 16300 | 19500 |
| 2026-04-12 06:15 | 3.36 | 5530 | 42400 (1984) | 2880 (1981) | 9400 | 4240 | 4550 | 5380 | 5840 | 7500 | 11000 | 12300 | 16300 | 19500 |
| 2026-04-12 05:15 | 3.36 | 5530 | 42400 (1984) | 2880 (1981) | 9400 | 4240 | 4550 | 5380 | 5840 | 7500 | 11000 | 12300 | 16300 | 19500 |
| 2026-04-12 04:15 | 3.32 | 5360 | 42400 (1984) | 2880 (1981) | 9400 | 4240 | 4550 | 5380 | 5840 | 7500 | 11000 | 12300 | 16300 | 19500 |
| 2026-04-12 03:15 | 3.34 | 5450 | 42400 (1984) | 2880 (1981) | 9400 | 4240 | 4550 | 5380 | 5840 | 7500 | 11000 | 12300 | 16300 | 19500 |
| 2026-04-12 02:15 | 3.37 | 5580 | 42400 (1984) | 2880 (1981) | 9400 | 4240 | 4550 | 5380 | 5840 | 7500 | 11000 | 12300 | 16300 | 19500 |
| 2026-04-12 01:15 | 3.38 | 5620 | 42400 (1984) | 2880 (1981) | 9400 | 4240 | 4550 | 5380 | 5840 | 7500 | 11000 | 12300 | 16300 | 19500 |
| 2026-04-12 00:15 | 3.43 | 5840 | 42400 (1984) | 2880 (1981) | 9400 | 4240 | 4550 | 5380 | 5840 | 7500 | 11000 | 12300 | 16300 | 19500 |
| 2026-04-11 23:15 | 3.45 | 5930 | 42400 (1984) | 2880 (1981) | 9400 | 4240 | 4550 | 5380 | 5840 | 7500 | 11000 | 12300 | 16300 | 19500 |
| 2026-04-11 22:15 | 3.47 | 6030 | 35000 (1984) | 3080 (1981) | 9450 | 4320 | 4650 | 5510 | 5990 | 7630 | 10800 | 12400 | 16300 | 20300 |
| 2026-04-11 21:15 | 3.54 | 6350 | 35000 (1984) | 3080 (1981) | 9450 | 4320 | 4650 | 5510 | 5990 | 7630 | 10800 | 12400 | 16300 | 20300 |
| 2026-04-11 20:15 | 3.59 | 6590 | 35000 (1984) | 3080 (1981) | 9450 | 4320 | 4650 | 5510 | 5990 | 7630 | 10800 | 12400 | 16300 | 20300 |
| 2026-04-11 19:15 | 3.65 | 6890 | 35000 (1984) | 3080 (1981) | 9450 | 4320 | 4650 | 5510 | 5990 | 7630 | 10800 | 12400 | 16300 | 20300 |
| 2026-04-11 18:15 | 3.70 | 7140 | 35000 (1984) | 3080 (1981) | 9450 | 4320 | 4650 | 5510 | 5990 | 7630 | 10800 | 12400 | 16300 | 20300 |
| 2026-04-11 17:15 | 3.71 | 7190 | 35000 (1984) | 3080 (1981) | 9450 | 4320 | 4650 | 5510 | 5990 | 7630 | 10800 | 12400 | 16300 | 20300 |
| 2026-04-11 16:15 | 3.71 | 7190 | 35000 (1984) | 3080 (1981) | 9450 | 4320 | 4650 | 5510 | 5990 | 7630 | 10800 | 12400 | 16300 | 20300 |
| 2026-04-11 15:15 | 3.72 | 7240 | 35000 (1984) | 3080 (1981) | 9450 | 4320 | 4650 | 5510 | 5990 | 7630 | 10800 | 12400 | 16300 | 20300 |
| 2026-04-11 14:15 | 3.79 | 7610 | 35000 (1984) | 3080 (1981) | 9450 | 4320 | 4650 | 5510 | 5990 | 7630 | 10800 | 12400 | 16300 | 20300 |
| 2026-04-11 13:15 | 3.79 | 7610 | 35000 (1984) | 3080 (1981) | 9450 | 4320 | 4650 | 5510 | 5990 | 7630 | 10800 | 12400 | 16300 | 20300 |
| 2026-04-11 12:15 | 3.76 | 7450 | 35000 (1984) | 3080 (1981) | 9450 | 4320 | 4650 | 5510 | 5990 | 7630 | 10800 | 12400 | 16300 | 20300 |
| 2026-04-11 11:15 | 3.78 | 7560 | 35000 (1984) | 3080 (1981) | 9450 | 4320 | 4650 | 5510 | 5990 | 7630 | 10800 | 12400 | 16300 | 20300 |
| 2026-04-11 10:15 | 3.78 | 7560 | 35000 (1984) | 3080 (1981) | 9450 | 4320 | 4650 | 5510 | 5990 | 7630 | 10800 | 12400 | 16300 | 20300 |
| 2026-04-11 09:15 | 3.74 | 7350 | 35000 (1984) | 3080 (1981) | 9450 | 4320 | 4650 | 5510 | 5990 | 7630 | 10800 | 12400 | 16300 | 20300 |
| 2026-04-11 08:15 | 3.70 | 7140 | 35000 (1984) | 3080 (1981) | 9450 | 4320 | 4650 | 5510 | 5990 | 7630 | 10800 | 12400 | 16300 | 20300 |
| 2026-04-11 07:15 | 3.67 | 6990 | 35000 (1984) | 3080 (1981) | 9450 | 4320 | 4650 | 5510 | 5990 | 7630 | 10800 | 12400 | 16300 | 20300 |
| 2026-04-11 06:15 | 3.67 | 6990 | 35000 (1984) | 3080 (1981) | 9450 | 4320 | 4650 | 5510 | 5990 | 7630 | 10800 | 12400 | 16300 | 20300 |
| 2026-04-11 05:15 | 3.62 | 6740 | 35000 (1984) | 3080 (1981) | 9450 | 4320 | 4650 | 5510 | 5990 | 7630 | 10800 | 12400 | 16300 | 20300 |
| 2026-04-11 04:15 | 3.60 | 6640 | 35000 (1984) | 3080 (1981) | 9450 | 4320 | 4650 | 5510 | 5990 | 7630 | 10800 | 12400 | 16300 | 20300 |
| 2026-04-11 03:15 | 3.60 | 6640 | 35000 (1984) | 3080 (1981) | 9450 | 4320 | 4650 | 5510 | 5990 | 7630 | 10800 | 12400 | 16300 | 20300 |
| 2026-04-11 02:15 | 3.62 | 6740 | 35000 (1984) | 3080 (1981) | 9450 | 4320 | 4650 | 5510 | 5990 | 7630 | 10800 | 12400 | 16300 | 20300 |
| 2026-04-11 01:15 | 3.62 | 6740 | 35000 (1984) | 3080 (1981) | 9450 | 4320 | 4650 | 5510 | 5990 | 7630 | 10800 | 12400 | 16300 | 20300 |
| 2026-04-11 00:15 | 3.67 | 6990 | 35000 (1984) | 3080 (1981) | 9450 | 4320 | 4650 | 5510 | 5990 | 7630 | 10800 | 12400 | 16300 | 20300 |
| 2026-04-10 23:15 | 3.69 | 7090 | 35000 (1984) | 3080 (1981) | 9450 | 4320 | 4650 | 5510 | 5990 | 7630 | 10800 | 12400 | 16300 | 20300 |
| 2026-04-10 22:15 | 3.67 | 6990 | 35400 (1984) | 3100 (1981) | 9730 | 3990 | 4640 | 5650 | 5970 | 7840 | 10600 | 11900 | 17600 | 25400 |
| 2026-04-10 21:15 | 3.66 | 6940 | 35400 (1984) | 3100 (1981) | 9730 | 3990 | 4640 | 5650 | 5970 | 7840 | 10600 | 11900 | 17600 | 25400 |
| 2026-04-10 20:15 | 3.68 | 7040 | 35400 (1984) | 3100 (1981) | 9730 | 3990 | 4640 | 5650 | 5970 | 7840 | 10600 | 11900 | 17600 | 25400 |
| 2026-04-10 19:15 | 3.69 | 7090 | 35400 (1984) | 3100 (1981) | 9730 | 3990 | 4640 | 5650 | 5970 | 7840 | 10600 | 11900 | 17600 | 25400 |
| 2026-04-10 18:15 | 3.66 | 6940 | 35400 (1984) | 3100 (1981) | 9730 | 3990 | 4640 | 5650 | 5970 | 7840 | 10600 | 11900 | 17600 | 25400 |
| 2026-04-10 17:15 | 3.64 | 6840 | 35400 (1984) | 3100 (1981) | 9730 | 3990 | 4640 | 5650 | 5970 | 7840 | 10600 | 11900 | 17600 | 25400 |
| 2026-04-10 16:15 | 3.58 | 6540 | 35400 (1984) | 3100 (1981) | 9730 | 3990 | 4640 | 5650 | 5970 | 7840 | 10600 | 11900 | 17600 | 25400 |
| 2026-04-10 15:15 | 3.50 | 6160 | 35400 (1984) | 3100 (1981) | 9730 | 3990 | 4640 | 5650 | 5970 | 7840 | 10600 | 11900 | 17600 | 25400 |
| 2026-04-10 14:15 | 3.47 | 6030 | 35400 (1984) | 3100 (1981) | 9730 | 3990 | 4640 | 5650 | 5970 | 7840 | 10600 | 11900 | 17600 | 25400 |
| 2026-04-10 13:15 | 3.42 | 5800 | 35400 (1984) | 3100 (1981) | 9730 | 3990 | 4640 | 5650 | 5970 | 7840 | 10600 | 11900 | 17600 | 25400 |
| 2026-04-10 12:15 | 3.42 | 5800 | 35400 (1984) | 3100 (1981) | 9730 | 3990 | 4640 | 5650 | 5970 | 7840 | 10600 | 11900 | 17600 | 25400 |
| 2026-04-10 11:15 | 3.39 | 5670 | 35400 (1984) | 3100 (1981) | 9730 | 3990 | 4640 | 5650 | 5970 | 7840 | 10600 | 11900 | 17600 | 25400 |
| 2026-04-10 10:15 | 3.33 | 5410 | 35400 (1984) | 3100 (1981) | 9730 | 3990 | 4640 | 5650 | 5970 | 7840 | 10600 | 11900 | 17600 | 25400 |
| 2026-04-10 09:15 | 3.30 | 5280 | 35400 (1984) | 3100 (1981) | 9730 | 3990 | 4640 | 5650 | 5970 | 7840 | 10600 | 11900 | 17600 | 25400 |
| 2026-04-10 08:15 | 3.31 | 5320 | 35400 (1984) | 3100 (1981) | 9730 | 3990 | 4640 | 5650 | 5970 | 7840 | 10600 | 11900 | 17600 | 25400 |
| 2026-04-10 07:15 | 3.35 | 5490 | 35400 (1984) | 3100 (1981) | 9730 | 3990 | 4640 | 5650 | 5970 | 7840 | 10600 | 11900 | 17600 | 25400 |
| 2026-04-10 06:15 | 3.38 | 5620 | 35400 (1984) | 3100 (1981) | 9730 | 3990 | 4640 | 5650 | 5970 | 7840 | 10600 | 11900 | 17600 | 25400 |
| 2026-04-10 05:15 | 3.38 | 5620 | 35400 (1984) | 3100 (1981) | 9730 | 3990 | 4640 | 5650 | 5970 | 7840 | 10600 | 11900 | 17600 | 25400 |
| 2026-04-10 04:15 | 3.40 | 5710 | 35400 (1984) | 3100 (1981) | 9730 | 3990 | 4640 | 5650 | 5970 | 7840 | 10600 | 11900 | 17600 | 25400 |
| 2026-04-10 03:15 | 3.40 | 5710 | 35400 (1984) | 3100 (1981) | 9730 | 3990 | 4640 | 5650 | 5970 | 7840 | 10600 | 11900 | 17600 | 25400 |
| 2026-04-10 02:15 | 3.44 | 5890 | 35400 (1984) | 3100 (1981) | 9730 | 3990 | 4640 | 5650 | 5970 | 7840 | 10600 | 11900 | 17600 | 25400 |
| 2026-04-10 01:15 | 3.47 | 6030 | 35400 (1984) | 3100 (1981) | 9730 | 3990 | 4640 | 5650 | 5970 | 7840 | 10600 | 11900 | 17600 | 25400 |
| 2026-04-10 00:15 | 3.52 | 6260 | 35400 (1984) | 3100 (1981) | 9730 | 3990 | 4640 | 5650 | 5970 | 7840 | 10600 | 11900 | 17600 | 25400 |
| 2026-04-09 23:15 | 3.53 | 6300 | 35400 (1984) | 3100 (1981) | 9730 | 3990 | 4640 | 5650 | 5970 | 7840 | 10600 | 11900 | 17600 | 25400 |
| 2026-04-09 22:15 | 3.51 | 6210 | 38100 (1984) | 3490 (1981) | 10000 | 4110 | 4710 | 5700 | 6000 | 8150 | 11100 | 12800 | 17500 | 25500 |
| 2026-04-09 21:15 | 3.51 | 6210 | 38100 (1984) | 3490 (1981) | 10000 | 4110 | 4710 | 5700 | 6000 | 8150 | 11100 | 12800 | 17500 | 25500 |
| 2026-04-09 20:15 | 3.52 | 6260 | 38100 (1984) | 3490 (1981) | 10000 | 4110 | 4710 | 5700 | 6000 | 8150 | 11100 | 12800 | 17500 | 25500 |
| 2026-04-09 19:15 | 3.54 | 6350 | 38100 (1984) | 3490 (1981) | 10000 | 4110 | 4710 | 5700 | 6000 | 8150 | 11100 | 12800 | 17500 | 25500 |
| 2026-04-09 18:15 | 3.53 | 6300 | 38100 (1984) | 3490 (1981) | 10000 | 4110 | 4710 | 5700 | 6000 | 8150 | 11100 | 12800 | 17500 | 25500 |
| 2026-04-09 17:15 | 3.50 | 6160 | 38100 (1984) | 3490 (1981) | 10000 | 4110 | 4710 | 5700 | 6000 | 8150 | 11100 | 12800 | 17500 | 25500 |
| 2026-04-09 16:15 | 3.47 | 6030 | 38100 (1984) | 3490 (1981) | 10000 | 4110 | 4710 | 5700 | 6000 | 8150 | 11100 | 12800 | 17500 | 25500 |
| 2026-04-09 15:15 | 3.43 | 5840 | 38100 (1984) | 3490 (1981) | 10000 | 4110 | 4710 | 5700 | 6000 | 8150 | 11100 | 12800 | 17500 | 25500 |
| 2026-04-09 14:15 | 3.41 | 5750 | 38100 (1984) | 3490 (1981) | 10000 | 4110 | 4710 | 5700 | 6000 | 8150 | 11100 | 12800 | 17500 | 25500 |
| 2026-04-09 13:15 | 3.37 | 5580 | 38100 (1984) | 3490 (1981) | 10000 | 4110 | 4710 | 5700 | 6000 | 8150 | 11100 | 12800 | 17500 | 25500 |
| 2026-04-09 12:15 | 3.34 | 5450 | 38100 (1984) | 3490 (1981) | 10000 | 4110 | 4710 | 5700 | 6000 | 8150 | 11100 | 12800 | 17500 | 25500 |
| 2026-04-09 11:15 | 3.33 | 5410 | 38100 (1984) | 3490 (1981) | 10000 | 4110 | 4710 | 5700 | 6000 | 8150 | 11100 | 12800 | 17500 | 25500 |
| 2026-04-09 10:15 | 3.31 | 5320 | 38100 (1984) | 3490 (1981) | 10000 | 4110 | 4710 | 5700 | 6000 | 8150 | 11100 | 12800 | 17500 | 25500 |
| 2026-04-09 09:15 | 3.32 | 5360 | 38100 (1984) | 3490 (1981) | 10000 | 4110 | 4710 | 5700 | 6000 | 8150 | 11100 | 12800 | 17500 | 25500 |
| 2026-04-09 08:15 | 3.29 | 5240 | 38100 (1984) | 3490 (1981) | 10000 | 4110 | 4710 | 5700 | 6000 | 8150 | 11100 | 12800 | 17500 | 25500 |
| 2026-04-09 07:15 | 3.30 | 5280 | 38100 (1984) | 3490 (1981) | 10000 | 4110 | 4710 | 5700 | 6000 | 8150 | 11100 | 12800 | 17500 | 25500 |
| 2026-04-09 06:15 | 3.31 | 5320 | 38100 (1984) | 3490 (1981) | 10000 | 4110 | 4710 | 5700 | 6000 | 8150 | 11100 | 12800 | 17500 | 25500 |
| 2026-04-09 05:15 | 3.32 | 5360 | 38100 (1984) | 3490 (1981) | 10000 | 4110 | 4710 | 5700 | 6000 | 8150 | 11100 | 12800 | 17500 | 25500 |
| 2026-04-09 04:15 | 3.35 | 5490 | 38100 (1984) | 3490 (1981) | 10000 | 4110 | 4710 | 5700 | 6000 | 8150 | 11100 | 12800 | 17500 | 25500 |
| 2026-04-09 03:15 | 3.40 | 5710 | 38100 (1984) | 3490 (1981) | 10000 | 4110 | 4710 | 5700 | 6000 | 8150 | 11100 | 12800 | 17500 | 25500 |
| 2026-04-09 02:15 | 3.44 | 5890 | 38100 (1984) | 3490 (1981) | 10000 | 4110 | 4710 | 5700 | 6000 | 8150 | 11100 | 12800 | 17500 | 25500 |
| 2026-04-09 01:15 | 3.49 | 6120 | 38100 (1984) | 3490 (1981) | 10000 | 4110 | 4710 | 5700 | 6000 | 8150 | 11100 | 12800 | 17500 | 25500 |
| 2026-04-09 00:15 | 3.52 | 6260 | 38100 (1984) | 3490 (1981) | 10000 | 4110 | 4710 | 5700 | 6000 | 8150 | 11100 | 12800 | 17500 | 25500 |
| 2026-04-08 23:15 | 3.57 | 6500 | 38100 (1984) | 3490 (1981) | 10000 | 4110 | 4710 | 5700 | 6000 | 8150 | 11100 | 12800 | 17500 | 25500 |
| 2026-04-08 22:15 | 3.59 | 6590 | 32900 (1984) | 3710 (1967) | 10100 | 4820 | 5190 | 5730 | 6100 | 7910 | 11300 | 13400 | 18000 | 26500 |
| 2026-04-08 21:15 | 3.66 | 6940 | 32900 (1984) | 3710 (1967) | 10100 | 4820 | 5190 | 5730 | 6100 | 7910 | 11300 | 13400 | 18000 | 26500 |
| 2026-04-08 20:15 | 3.70 | 7140 | 32900 (1984) | 3710 (1967) | 10100 | 4820 | 5190 | 5730 | 6100 | 7910 | 11300 | 13400 | 18000 | 26500 |
| 2026-04-08 19:15 | 3.74 | 7350 | 32900 (1984) | 3710 (1967) | 10100 | 4820 | 5190 | 5730 | 6100 | 7910 | 11300 | 13400 | 18000 | 26500 |
| 2026-04-08 18:15 | 3.76 | 7450 | 32900 (1984) | 3710 (1967) | 10100 | 4820 | 5190 | 5730 | 6100 | 7910 | 11300 | 13400 | 18000 | 26500 |
| 2026-04-08 17:15 | 3.77 | 7500 | 32900 (1984) | 3710 (1967) | 10100 | 4820 | 5190 | 5730 | 6100 | 7910 | 11300 | 13400 | 18000 | 26500 |
| 2026-04-08 16:15 | 3.77 | 7500 | 32900 (1984) | 3710 (1967) | 10100 | 4820 | 5190 | 5730 | 6100 | 7910 | 11300 | 13400 | 18000 | 26500 |
| 2026-04-08 15:15 | 3.76 | 7450 | 32900 (1984) | 3710 (1967) | 10100 | 4820 | 5190 | 5730 | 6100 | 7910 | 11300 | 13400 | 18000 | 26500 |
| 2026-04-08 14:15 | 3.77 | 7500 | 32900 (1984) | 3710 (1967) | 10100 | 4820 | 5190 | 5730 | 6100 | 7910 | 11300 | 13400 | 18000 | 26500 |
| 2026-04-08 13:15 | 3.69 | 7090 | 32900 (1984) | 3710 (1967) | 10100 | 4820 | 5190 | 5730 | 6100 | 7910 | 11300 | 13400 | 18000 | 26500 |
| 2026-04-08 12:15 | 3.60 | 6640 | 32900 (1984) | 3710 (1967) | 10100 | 4820 | 5190 | 5730 | 6100 | 7910 | 11300 | 13400 | 18000 | 26500 |
| 2026-04-08 11:15 | 3.60 | 6640 | 32900 (1984) | 3710 (1967) | 10100 | 4820 | 5190 | 5730 | 6100 | 7910 | 11300 | 13400 | 18000 | 26500 |
| 2026-04-08 10:15 | 3.50 | 6160 | 32900 (1984) | 3710 (1967) | 10100 | 4820 | 5190 | 5730 | 6100 | 7910 | 11300 | 13400 | 18000 | 26500 |
| 2026-04-08 09:15 | 3.42 | 5800 | 32900 (1984) | 3710 (1967) | 10100 | 4820 | 5190 | 5730 | 6100 | 7910 | 11300 | 13400 | 18000 | 26500 |
| 2026-04-08 08:15 | 3.39 | 5670 | 32900 (1984) | 3710 (1967) | 10100 | 4820 | 5190 | 5730 | 6100 | 7910 | 11300 | 13400 | 18000 | 26500 |
| 2026-04-08 07:15 | 3.32 | 5360 | 32900 (1984) | 3710 (1967) | 10100 | 4820 | 5190 | 5730 | 6100 | 7910 | 11300 | 13400 | 18000 | 26500 |
| 2026-04-08 06:15 | 3.35 | 5490 | 32900 (1984) | 3710 (1967) | 10100 | 4820 | 5190 | 5730 | 6100 | 7910 | 11300 | 13400 | 18000 | 26500 |
| 2026-04-08 05:15 | 3.36 | 5530 | 32900 (1984) | 3710 (1967) | 10100 | 4820 | 5190 | 5730 | 6100 | 7910 | 11300 | 13400 | 18000 | 26500 |
| 2026-04-08 04:15 | 3.33 | 5410 | 32900 (1984) | 3710 (1967) | 10100 | 4820 | 5190 | 5730 | 6100 | 7910 | 11300 | 13400 | 18000 | 26500 |
| 2026-04-08 03:15 | 3.36 | 5530 | 32900 (1984) | 3710 (1967) | 10100 | 4820 | 5190 | 5730 | 6100 | 7910 | 11300 | 13400 | 18000 | 26500 |
| 2026-04-08 02:15 | 3.39 | 5670 | 32900 (1984) | 3710 (1967) | 10100 | 4820 | 5190 | 5730 | 6100 | 7910 | 11300 | 13400 | 18000 | 26500 |
| 2026-04-08 01:15 | 3.41 | 5750 | 32900 (1984) | 3710 (1967) | 10100 | 4820 | 5190 | 5730 | 6100 | 7910 | 11300 | 13400 | 18000 | 26500 |
| 2026-04-08 00:15 | 3.47 | 6030 | 32900 (1984) | 3710 (1967) | 10100 | 4820 | 5190 | 5730 | 6100 | 7910 | 11300 | 13400 | 18000 | 26500 |
| 2026-04-07 23:15 | 3.53 | 6300 | 32900 (1984) | 3710 (1967) | 10100 | 4820 | 5190 | 5730 | 6100 | 7910 | 11300 | 13400 | 18000 | 26500 |
| 2026-04-07 22:15 | 3.58 | 6540 | 33000 (1987) | 3700 (1967) | 9780 | 4730 | 5240 | 5760 | 5950 | 8030 | 11800 | 12400 | 17100 | 22800 |
| 2026-04-07 21:15 | 3.66 | 6940 | 33000 (1987) | 3700 (1967) | 9780 | 4730 | 5240 | 5760 | 5950 | 8030 | 11800 | 12400 | 17100 | 22800 |
| 2026-04-07 20:15 | 3.70 | 7140 | 33000 (1987) | 3700 (1967) | 9780 | 4730 | 5240 | 5760 | 5950 | 8030 | 11800 | 12400 | 17100 | 22800 |
| 2026-04-07 19:15 | 3.75 | 7400 | 33000 (1987) | 3700 (1967) | 9780 | 4730 | 5240 | 5760 | 5950 | 8030 | 11800 | 12400 | 17100 | 22800 |
| 2026-04-07 18:15 | 3.80 | 7660 | 33000 (1987) | 3700 (1967) | 9780 | 4730 | 5240 | 5760 | 5950 | 8030 | 11800 | 12400 | 17100 | 22800 |
| 2026-04-07 17:15 | 3.80 | 7660 | 33000 (1987) | 3700 (1967) | 9780 | 4730 | 5240 | 5760 | 5950 | 8030 | 11800 | 12400 | 17100 | 22800 |
| 2026-04-07 16:15 | 3.81 | 7720 | 33000 (1987) | 3700 (1967) | 9780 | 4730 | 5240 | 5760 | 5950 | 8030 | 11800 | 12400 | 17100 | 22800 |
| 2026-04-07 15:15 | 3.84 | 7880 | 33000 (1987) | 3700 (1967) | 9780 | 4730 | 5240 | 5760 | 5950 | 8030 | 11800 | 12400 | 17100 | 22800 |
| 2026-04-07 14:15 | 3.83 | 7830 | 33000 (1987) | 3700 (1967) | 9780 | 4730 | 5240 | 5760 | 5950 | 8030 | 11800 | 12400 | 17100 | 22800 |
| 2026-04-07 13:15 | 3.79 | 7610 | 33000 (1987) | 3700 (1967) | 9780 | 4730 | 5240 | 5760 | 5950 | 8030 | 11800 | 12400 | 17100 | 22800 |
| 2026-04-07 12:15 | 3.74 | 7350 | 33000 (1987) | 3700 (1967) | 9780 | 4730 | 5240 | 5760 | 5950 | 8030 | 11800 | 12400 | 17100 | 22800 |
| 2026-04-07 11:15 | 3.73 | 7290 | 33000 (1987) | 3700 (1967) | 9780 | 4730 | 5240 | 5760 | 5950 | 8030 | 11800 | 12400 | 17100 | 22800 |
| 2026-04-07 10:15 | 3.69 | 7090 | 33000 (1987) | 3700 (1967) | 9780 | 4730 | 5240 | 5760 | 5950 | 8030 | 11800 | 12400 | 17100 | 22800 |
| 2026-04-07 09:15 | 3.59 | 6590 | 33000 (1987) | 3700 (1967) | 9780 | 4730 | 5240 | 5760 | 5950 | 8030 | 11800 | 12400 | 17100 | 22800 |
| 2026-04-07 08:15 | 3.54 | 6350 | 33000 (1987) | 3700 (1967) | 9780 | 4730 | 5240 | 5760 | 5950 | 8030 | 11800 | 12400 | 17100 | 22800 |
| 2026-04-07 07:15 | 3.54 | 6350 | 33000 (1987) | 3700 (1967) | 9780 | 4730 | 5240 | 5760 | 5950 | 8030 | 11800 | 12400 | 17100 | 22800 |
| 2026-04-07 06:15 | 3.51 | 6210 | 33000 (1987) | 3700 (1967) | 9780 | 4730 | 5240 | 5760 | 5950 | 8030 | 11800 | 12400 | 17100 | 22800 |
| 2026-04-07 05:15 | 3.46 | 5980 | 33000 (1987) | 3700 (1967) | 9780 | 4730 | 5240 | 5760 | 5950 | 8030 | 11800 | 12400 | 17100 | 22800 |
| 2026-04-07 04:15 | 3.53 | 6300 | 33000 (1987) | 3700 (1967) | 9780 | 4730 | 5240 | 5760 | 5950 | 8030 | 11800 | 12400 | 17100 | 22800 |
| 2026-04-07 03:15 | 3.53 | 6300 | 33000 (1987) | 3700 (1967) | 9780 | 4730 | 5240 | 5760 | 5950 | 8030 | 11800 | 12400 | 17100 | 22800 |
| 2026-04-07 02:15 | 3.50 | 6160 | 33000 (1987) | 3700 (1967) | 9780 | 4730 | 5240 | 5760 | 5950 | 8030 | 11800 | 12400 | 17100 | 22800 |
| 2026-04-07 01:15 | 3.58 | 6540 | 33000 (1987) | 3700 (1967) | 9780 | 4730 | 5240 | 5760 | 5950 | 8030 | 11800 | 12400 | 17100 | 22800 |
| 2026-04-07 00:15 | 3.63 | 6790 | 33000 (1987) | 3700 (1967) | 9780 | 4730 | 5240 | 5760 | 5950 | 8030 | 11800 | 12400 | 17100 | 22800 |
| 2026-04-06 23:15 | 3.67 | 6990 | 33000 (1987) | 3700 (1967) | 9780 | 4730 | 5240 | 5760 | 5950 | 8030 | 11800 | 12400 | 17100 | 22800 |
| 2026-04-06 22:15 | 3.72 | 7240 | 35900 (1984) | 3660 (1981) | 10200 | 4560 | 5050 | 5780 | 6090 | 7910 | 11900 | 13800 | 16500 | 25300 |
| 2026-04-06 21:15 | 3.78 | 7560 | 35900 (1984) | 3660 (1981) | 10200 | 4560 | 5050 | 5780 | 6090 | 7910 | 11900 | 13800 | 16500 | 25300 |
| 2026-04-06 20:15 | 3.84 | 7880 | 35900 (1984) | 3660 (1981) | 10200 | 4560 | 5050 | 5780 | 6090 | 7910 | 11900 | 13800 | 16500 | 25300 |
| 2026-04-06 19:15 | 3.87 | 8040 | 35900 (1984) | 3660 (1981) | 10200 | 4560 | 5050 | 5780 | 6090 | 7910 | 11900 | 13800 | 16500 | 25300 |
| 2026-04-06 18:15 | 3.90 | 8210 | 35900 (1984) | 3660 (1981) | 10200 | 4560 | 5050 | 5780 | 6090 | 7910 | 11900 | 13800 | 16500 | 25300 |
| 2026-04-06 17:15 | 3.92 | 8320 | 35900 (1984) | 3660 (1981) | 10200 | 4560 | 5050 | 5780 | 6090 | 7910 | 11900 | 13800 | 16500 | 25300 |
| 2026-04-06 16:15 | 3.95 | 8490 | 35900 (1984) | 3660 (1981) | 10200 | 4560 | 5050 | 5780 | 6090 | 7910 | 11900 | 13800 | 16500 | 25300 |
| 2026-04-06 15:15 | 4.01 | 8840 | 35900 (1984) | 3660 (1981) | 10200 | 4560 | 5050 | 5780 | 6090 | 7910 | 11900 | 13800 | 16500 | 25300 |
| 2026-04-06 14:15 | 3.98 | 8670 | 35900 (1984) | 3660 (1981) | 10200 | 4560 | 5050 | 5780 | 6090 | 7910 | 11900 | 13800 | 16500 | 25300 |
| 2026-04-06 13:15 | 3.95 | 8490 | 35900 (1984) | 3660 (1981) | 10200 | 4560 | 5050 | 5780 | 6090 | 7910 | 11900 | 13800 | 16500 | 25300 |
| 2026-04-06 12:15 | 3.89 | 8160 | 35900 (1984) | 3660 (1981) | 10200 | 4560 | 5050 | 5780 | 6090 | 7910 | 11900 | 13800 | 16500 | 25300 |
| 2026-04-06 11:15 | 3.87 | 8040 | 35900 (1984) | 3660 (1981) | 10200 | 4560 | 5050 | 5780 | 6090 | 7910 | 11900 | 13800 | 16500 | 25300 |
| 2026-04-06 10:15 | 3.84 | 7880 | 35900 (1984) | 3660 (1981) | 10200 | 4560 | 5050 | 5780 | 6090 | 7910 | 11900 | 13800 | 16500 | 25300 |
| 2026-04-06 09:15 | 3.76 | 7450 | 35900 (1984) | 3660 (1981) | 10200 | 4560 | 5050 | 5780 | 6090 | 7910 | 11900 | 13800 | 16500 | 25300 |
| 2026-04-06 08:15 | 3.69 | 7090 | 35900 (1984) | 3660 (1981) | 10200 | 4560 | 5050 | 5780 | 6090 | 7910 | 11900 | 13800 | 16500 | 25300 |
| 2026-04-06 07:15 | 3.65 | 6890 | 35900 (1984) | 3660 (1981) | 10200 | 4560 | 5050 | 5780 | 6090 | 7910 | 11900 | 13800 | 16500 | 25300 |
| 2026-04-06 06:15 | 3.56 | 6450 | 35900 (1984) | 3660 (1981) | 10200 | 4560 | 5050 | 5780 | 6090 | 7910 | 11900 | 13800 | 16500 | 25300 |
| 2026-04-06 05:15 | 3.58 | 6540 | 35900 (1984) | 3660 (1981) | 10200 | 4560 | 5050 | 5780 | 6090 | 7910 | 11900 | 13800 | 16500 | 25300 |
| 2026-04-06 04:15 | 3.58 | 6540 | 35900 (1984) | 3660 (1981) | 10200 | 4560 | 5050 | 5780 | 6090 | 7910 | 11900 | 13800 | 16500 | 25300 |
| 2026-04-06 03:15 | 3.60 | 6640 | 35900 (1984) | 3660 (1981) | 10200 | 4560 | 5050 | 5780 | 6090 | 7910 | 11900 | 13800 | 16500 | 25300 |
| 2026-04-06 02:15 | 3.60 | 6640 | 35900 (1984) | 3660 (1981) | 10200 | 4560 | 5050 | 5780 | 6090 | 7910 | 11900 | 13800 | 16500 | 25300 |
| 2026-04-06 01:15 | 3.61 | 6690 | 35900 (1984) | 3660 (1981) | 10200 | 4560 | 5050 | 5780 | 6090 | 7910 | 11900 | 13800 | 16500 | 25300 |
| 2026-04-06 00:15 | 3.64 | 6840 | 35900 (1984) | 3660 (1981) | 10200 | 4560 | 5050 | 5780 | 6090 | 7910 | 11900 | 13800 | 16500 | 25300 |
| 2026-04-05 23:15 | 3.68 | 7040 | 35900 (1984) | 3660 (1981) | 10200 | 4560 | 5050 | 5780 | 6090 | 7910 | 11900 | 13800 | 16500 | 25300 |
| 2026-04-05 22:15 | 3.70 | 7140 | 49800 (1960) | 4130 (1967) | 10700 | 4680 | 5250 | 5540 | 5950 | 8310 | 12500 | 14600 | 18100 | 25500 |
| 2026-04-05 21:15 | 3.76 | 7450 | 49800 (1960) | 4130 (1967) | 10700 | 4680 | 5250 | 5540 | 5950 | 8310 | 12500 | 14600 | 18100 | 25500 |
| 2026-04-05 20:15 | 3.79 | 7610 | 49800 (1960) | 4130 (1967) | 10700 | 4680 | 5250 | 5540 | 5950 | 8310 | 12500 | 14600 | 18100 | 25500 |
| 2026-04-05 19:15 | 3.87 | 8040 | 49800 (1960) | 4130 (1967) | 10700 | 4680 | 5250 | 5540 | 5950 | 8310 | 12500 | 14600 | 18100 | 25500 |
| 2026-04-05 18:15 | 3.90 | 8210 | 49800 (1960) | 4130 (1967) | 10700 | 4680 | 5250 | 5540 | 5950 | 8310 | 12500 | 14600 | 18100 | 25500 |
| 2026-04-05 17:15 | 3.94 | 8440 | 49800 (1960) | 4130 (1967) | 10700 | 4680 | 5250 | 5540 | 5950 | 8310 | 12500 | 14600 | 18100 | 25500 |
| 2026-04-05 16:15 | 3.98 | 8670 | 49800 (1960) | 4130 (1967) | 10700 | 4680 | 5250 | 5540 | 5950 | 8310 | 12500 | 14600 | 18100 | 25500 |
| 2026-04-05 15:15 | 3.98 | 8670 | 49800 (1960) | 4130 (1967) | 10700 | 4680 | 5250 | 5540 | 5950 | 8310 | 12500 | 14600 | 18100 | 25500 |
| 2026-04-05 14:15 | 4.01 | 8840 | 49800 (1960) | 4130 (1967) | 10700 | 4680 | 5250 | 5540 | 5950 | 8310 | 12500 | 14600 | 18100 | 25500 |
| 2026-04-05 13:15 | 4.03 | 8960 | 49800 (1960) | 4130 (1967) | 10700 | 4680 | 5250 | 5540 | 5950 | 8310 | 12500 | 14600 | 18100 | 25500 |
| 2026-04-05 12:15 | 4.07 | 9200 | 49800 (1960) | 4130 (1967) | 10700 | 4680 | 5250 | 5540 | 5950 | 8310 | 12500 | 14600 | 18100 | 25500 |
| 2026-04-05 11:15 | 4.04 | 9020 | 49800 (1960) | 4130 (1967) | 10700 | 4680 | 5250 | 5540 | 5950 | 8310 | 12500 | 14600 | 18100 | 25500 |
| 2026-04-05 10:15 | 4.00 | 8780 | 49800 (1960) | 4130 (1967) | 10700 | 4680 | 5250 | 5540 | 5950 | 8310 | 12500 | 14600 | 18100 | 25500 |
| 2026-04-05 09:15 | 4.02 | 8900 | 49800 (1960) | 4130 (1967) | 10700 | 4680 | 5250 | 5540 | 5950 | 8310 | 12500 | 14600 | 18100 | 25500 |
| 2026-04-05 08:15 | 3.96 | 8550 | 49800 (1960) | 4130 (1967) | 10700 | 4680 | 5250 | 5540 | 5950 | 8310 | 12500 | 14600 | 18100 | 25500 |
| 2026-04-05 07:15 | 3.96 | 8550 | 49800 (1960) | 4130 (1967) | 10700 | 4680 | 5250 | 5540 | 5950 | 8310 | 12500 | 14600 | 18100 | 25500 |
| 2026-04-05 06:15 | 3.89 | 8160 | 49800 (1960) | 4130 (1967) | 10700 | 4680 | 5250 | 5540 | 5950 | 8310 | 12500 | 14600 | 18100 | 25500 |
| 2026-04-05 05:15 | 3.80 | 7660 | 49800 (1960) | 4130 (1967) | 10700 | 4680 | 5250 | 5540 | 5950 | 8310 | 12500 | 14600 | 18100 | 25500 |
| 2026-04-05 04:15 | 3.81 | 7720 | 49800 (1960) | 4130 (1967) | 10700 | 4680 | 5250 | 5540 | 5950 | 8310 | 12500 | 14600 | 18100 | 25500 |
| 2026-04-05 03:15 | 3.82 | 7770 | 49800 (1960) | 4130 (1967) | 10700 | 4680 | 5250 | 5540 | 5950 | 8310 | 12500 | 14600 | 18100 | 25500 |
| 2026-04-05 02:15 | 3.83 | 7830 | 49800 (1960) | 4130 (1967) | 10700 | 4680 | 5250 | 5540 | 5950 | 8310 | 12500 | 14600 | 18100 | 25500 |
| 2026-04-05 01:15 | 3.83 | 7830 | 49800 (1960) | 4130 (1967) | 10700 | 4680 | 5250 | 5540 | 5950 | 8310 | 12500 | 14600 | 18100 | 25500 |
| 2026-04-05 00:15 | 3.85 | 7930 | 49800 (1960) | 4130 (1967) | 10700 | 4680 | 5250 | 5540 | 5950 | 8310 | 12500 | 14600 | 18100 | 25500 |
| 2026-04-04 23:15 | 3.86 | 7990 | 49800 (1960) | 4130 (1967) | 10700 | 4680 | 5250 | 5540 | 5950 | 8310 | 12500 | 14600 | 18100 | 25500 |
A total of 734 rows are displayed for years 1954 through 2025.